GFSNGP_sfc_30mbdewp_009.txt.gz
Dewpoint
26 24 22 21 20 21 20 21 22 21 26 32 35 35 36 36 37 37 35 34 34 33 32 30 28 24 22 23 25 26 35 34 34 36 34 35 33 30 29 24 22 20 19 21
25 28 25 23 24 24 22 21 22 24 26 34 35 35 35 37 36 34 33 33 32 32 30 25 22 21 21 21 21 22 21 22 33 36 35 35 35 34 28 22 20 19 21 22
25 29 31 26 27 25 24 25 23 22 28 35 34 34 36 36 33 32 32 32 31 30 26 23 21 21 19 19 20 21 21 29 34 36 35 35 36 33 27 24 21 21 23 22
22 28 13 29 27 26 26 27 28 33 35 35 34 36 35 34 32 31 31 30 29 27 20 20 19 18 18 18 18 19 27 29 31 33 33 35 35 29 26 24 21 23 24 25
21 25 24 26 27 28 27 27 36 36 36 36 35 34 34 33 32 31 27 24 21 19 18 17 17 17 17 18 18 19 28 29 29 30 32 33 35 31 27 24 23 25 26 25
28 17 9 27 30 32 31 27 38 38 37 36 35 30 33 36 33 24 22 21 18 16 15 16 16 17 17 17 18 26 29 29 31 32 31 32 32 29 24 21 26 26 25 25
29 25 27 32 31 32 25 26 39 39 38 37 35 36 38 38 26 22 21 18 17 15 15 16 17 17 17 18 20 27 29 30 29 29 29 28 25 20 20 25 25 23 22 21
30 26 21 31 31 27 33 40 40 38 38 38 38 38 38 28 23 22 20 16 16 16 17 18 18 19 19 21 23 26 28 28 26 26 24 22 20 20 23 22 21 21 18 17
30 27 30 33 32 36 40 40 39 39 38 37 37 37 30 24 23 21 17 17 17 18 18 19 20 20 23 25 26 27 27 25 25 25 24 23 21 20 21 22 21 20 18 16
33 34 33 35 40 41 41 40 39 38 37 38 37 28 24 24 20 18 18 17 18 18 18 20 22 23 26 26 25 26 26 25 25 26 25 24 22 22 22 21 19 18 18 16
32 34 35 40 41 40 39 39 39 39 38 35 26 25 20 19 18 18 17 18 19 20 22 23 25 27 27 27 25 27 27 26 26 26 25 25 23 21 22 20 19 19 17 16
29 36 37 40 40 40 39 39 40 38 28 26 22 18 18 17 19 19 20 21 22 24 24 25 28 28 29 29 28 27 26 26 25 25 26 25 24 24 23 22 20 19 18 16
34 41 41 40 39 38 37 33 29 27 26 19 19 18 18 19 21 22 22 23 25 25 27 28 28 29 30 31 30 27 26 26 26 25 27 25 23 22 20 22 25 24 21 21
41 40 39 38 37 38 31 29 28 25 19 19 19 20 22 22 23 23 23 26 27 28 28 27 28 26 30 30 30 27 27 26 25 25 25 26 23 21 22 24 23 21 22 23
39 39 38 39 37 31 29 22 17 19 20 21 21 24 24 25 24 24 26 27 29 28 27 28 29 30 29 29 30 31 26 26 24 22 24 26 24 24 24 23 23 22 21 21
38 38 37 36 27 22 19 19 20 22 22 23 23 24 27 27 27 27 28 29 28 27 28 28 29 31 32 30 30 28 26 25 23 22 23 24 25 24 23 23 23 22 21 19
36 34 30 25 20 19 21 23 24 24 24 24 25 28 28 28 28 28 28 28 28 28 28 29 30 32 32 30 30 28 26 24 24 24 23 23 25 24 24 22 22 21 22 21
30 29 25 20 20 22 24 25 25 25 25 27 26 26 27 27 28 28 28 28 27 27 26 29 30 32 33 30 29 27 24 22 22 23 25 26 25 25 21 22 24 24 24 21
24 21 21 24 24 23 23 23 26 28 27 26 27 27 28 29 29 29 28 27 25 25 26 29 32 33 33 30 29 25 22 22 23 22 23 26 26 25 22 22 24 24 23 21
22 23 22 21 21 20 21 25 27 28 28 28 28 28 29 28 28 28 26 25 27 28 28 30 33 32 32 30 26 23 21 21 24 21 23 24 26 25 24 25 23 23 24 24
20 22 21 22 23 26 28 28 28 27 28 29 30 30 29 29 28 27 26 26 26 27 32 33 32 31 31 30 26 25 22 21 22 23 24 24 25 26 26 24 24 23 24 24
24 21 21 22 24 25 27 29 30 30 31 31 29 29 29 29 28 28 29 28 28 32 31 32 31 31 32 31 29 27 24 24 25 24 21 25 25 25 25 26 23 23 24 24
25 25 25 24 24 26 29 30 30 30 30 30 29 30 30 29 29 29 28 29 29 30 30 31 32 32 32 31 28 26 27 26 25 24 20 21 23 24 23 21 21 23 23 23
28 27 26 27 27 28 27 28 29 30 30 30 31 32 30 29 28 30 31 31 30 29 30 32 32 31 32 31 29 27 26 25 25 25 25 23 24 25 25 25 25 22 22 23
25 26 26 26 27 27 29 30 30 30 29 29 31 30 29 29 29 30 31 31 31 31 31 32 32 32 31 30 29 28 27 27 26 26 26 26 26 26 25 26 27 26 25 24
27 27 28 28 28 28 28 28 29 29 29 30 29 28 27 28 30 31 31 31 32 32 31 31 32 32 31 31 29 28 28 28 28 28 28 27 26 24 24 24 25 26 26 26
28 28 29 29 30 29 29 29 30 31 31 31 29 28 28 30 29 29 30 31 31 31 31 32 32 31 31 31 31 30 29 29 29 29 28 27 26 25 25 25 25 25 25 24

GFSNGP_sfc_30mbdewp_012.txt.gz
Dewpoint
25 26 23 22 21 22 22 24 22 21 25 30 34 35 36 37 36 34 33 32 32 32 31 29 23 22 21 21 20 22 22 27 34 35 35 35 35 35 34 35 36 26 21 21
24 29 28 21 22 24 23 22 23 24 31 35 35 36 37 35 33 33 32 31 31 30 30 24 22 19 19 18 19 21 23 31 33 35 35 35 36 36 36 36 24 24 23 24
14 29 28 21 25 26 24 26 24 22 30 35 35 36 35 34 32 32 30 29 29 29 22 21 19 18 16 17 19 21 28 30 30 35 33 34 36 36 36 31 29 23 24 24
18 23 9 24 28 27 26 31 34 34 34 34 35 36 34 33 31 31 31 28 26 19 18 18 17 16 17 18 19 21 28 29 30 31 31 33 34 34 34 34 25 24 25 24
14 20 18 23 28 27 25 27 36 35 35 35 36 34 33 32 31 30 26 23 20 18 17 17 16 17 17 17 18 25 28 29 30 31 31 31 31 32 32 28 25 26 24 24
26 11 3 18 30 32 30 26 37 37 36 35 34 31 31 37 37 24 21 20 17 15 16 16 16 17 18 19 20 26 29 29 30 30 31 30 30 31 24 24 26 24 22 23
25 20 21 25 32 32 25 18 39 38 38 36 33 33 36 39 28 22 21 16 16 17 17 17 18 19 20 21 22 26 28 29 29 27 25 25 22 21 24 25 23 20 18 21
28 24 15 31 32 27 28 38 39 38 38 38 38 38 38 35 23 21 16 17 17 17 18 19 21 21 22 23 25 26 27 27 26 25 25 23 21 23 23 22 21 19 16 16
27 23 28 32 31 33 39 39 39 38 38 38 37 37 36 25 20 18 17 17 18 18 20 21 23 23 25 25 26 26 27 26 25 25 25 25 21 21 22 21 19 19 18 16
31 30 32 33 38 39 41 39 39 40 38 38 37 35 24 20 18 17 17 18 19 21 22 23 24 27 27 28 28 27 26 26 26 26 25 25 22 22 21 19 19 19 18 17
32 33 38 39 40 40 39 39 38 38 37 38 30 20 19 18 18 19 19 21 22 23 25 25 26 28 28 30 28 26 27 26 25 25 25 25 21 22 21 20 19 19 18 17
27 32 32 35 40 40 39 39 40 38 27 22 19 18 18 19 21 21 22 22 23 25 26 27 28 27 29 31 31 30 29 27 25 25 25 24 24 23 23 23 22 22 20 17
34 38 39 40 40 40 39 39 36 28 20 18 19 19 20 21 22 23 22 23 25 26 27 28 26 27 29 30 30 30 30 28 27 25 26 25 23 21 19 22 25 24 24 22
39 41 39 39 38 38 31 29 23 20 20 19 20 23 22 22 23 23 23 25 26 27 29 28 27 28 29 30 29 29 29 30 27 26 25 24 23 21 22 22 21 22 21 24
41 40 39 39 37 30 29 20 20 20 21 21 24 23 23 23 24 25 26 27 28 28 28 28 28 28 29 31 30 29 31 29 25 24 22 23 24 24 24 22 22 22 20 21
40 38 39 35 29 21 21 23 21 22 23 22 22 22 25 28 27 27 28 28 28 27 26 26 26 28 30 32 32 29 30 26 24 22 21 23 24 25 24 23 23 22 21 20
37 35 27 26 25 25 24 24 23 23 23 22 23 26 27 26 27 28 28 28 27 27 26 26 26 28 30 33 32 30 29 25 24 24 25 25 23 23 24 24 20 21 21 21
34 32 31 31 29 27 25 24 23 23 23 25 26 25 25 26 27 28 27 27 27 26 25 25 27 29 32 33 32 30 27 24 23 23 23 23 25 25 24 21 21 23 23 23
32 33 32 30 26 22 18 16 20 26 27 26 26 25 27 27 28 28 27 27 25 24 25 26 28 30 32 32 31 30 27 23 21 22 22 21 22 24 25 23 21 22 22 22
32 30 25 21 18 16 16 22 25 26 27 27 26 27 28 27 27 27 27 26 26 25 27 28 30 29 32 31 30 29 25 21 20 20 22 20 21 23 25 24 24 23 21 21
22 21 18 19 22 25 26 27 27 26 26 27 28 29 28 28 28 28 27 26 26 26 28 31 30 30 31 31 30 28 25 22 20 20 20 20 21 22 23 25 25 23 21 21
22 21 22 22 23 24 25 26 28 28 28 29 30 28 27 28 28 27 26 27 29 29 29 30 29 31 31 31 30 29 28 26 25 23 21 22 21 20 23 24 24 25 22 21
25 26 25 24 24 25 27 28 28 28 28 28 28 28 27 29 28 27 26 28 29 29 30 30 30 31 32 31 31 30 29 26 25 24 23 23 21 19 21 24 24 23 21 22
28 27 25 26 26 27 26 26 28 29 29 29 29 28 29 29 28 27 28 28 29 30 30 31 31 31 31 31 29 30 29 28 27 26 25 24 23 22 22 22 23 24 23 22
25 26 26 26 26 26 27 28 29 28 28 29 29 29 30 30 29 28 27 29 30 30 30 31 32 31 31 31 30 29 28 28 27 27 26 25 25 25 25 25 24 25 26 25
27 27 27 28 28 28 29 28 28 28 29 29 29 30 30 29 28 28 29 29 30 30 30 28 29 31 30 30 30 30 30 29 28 27 27 27 27 27 27 26 26 25 25 26
28 28 28 29 29 28 28 28 29 30 29 29 29 30 30 29 29 30 29 30 29 28 28 26 27 28 29 28 29 29 29 30 30 29 28 28 28 28 27 26 25 24 25 26

GFSNGP_sfc_30mbdewp_015.txt.gz
Dewpoint
26 26 23 21 20 26 25 25 21 21 23 26 34 35 35 37 36 34 33 31 31 30 30 29 23 21 20 19 20 21 21 26 30 34 35 35 35 35 35 34 35 37 28 28
26 29 27 21 22 22 23 23 25 24 24 35 35 36 37 36 34 33 31 28 28 29 29 24 21 18 18 17 18 21 21 27 31 33 34 34 35 36 36 36 34 29 31 25
9 28 23 15 19 24 24 25 23 22 27 35 35 36 36 35 33 32 30 27 28 29 24 21 19 18 16 16 18 20 21 29 30 31 33 31 33 35 34 34 35 30 24 24
16 18 7 13 27 27 25 27 31 31 33 34 35 36 36 34 33 32 30 30 28 23 19 19 18 17 17 17 18 19 22 29 30 30 30 31 31 32 33 33 32 25 24 24
13 14 14 14 25 26 26 24 34 33 34 34 36 34 34 34 32 31 30 26 23 19 17 17 16 17 18 18 19 20 27 28 29 30 31 31 30 30 31 30 25 25 24 23
23 10 1 8 30 31 29 23 35 35 34 35 34 31 32 34 33 33 25 21 16 16 17 17 17 19 20 20 21 23 27 28 29 30 28 26 26 28 24 25 25 23 20 22
20 15 17 21 31 30 23 14 37 37 36 35 33 33 33 37 37 26 19 16 17 17 17 19 20 21 21 22 23 24 27 27 28 26 25 25 23 22 24 25 22 19 18 20
24 20 13 27 31 27 27 31 38 38 37 36 35 36 38 38 23 18 17 17 17 17 19 21 23 23 23 24 25 26 27 27 26 25 25 24 21 24 24 22 20 18 16 17
24 19 27 31 31 33 34 35 39 39 39 38 37 38 38 26 18 17 16 17 18 19 21 23 24 25 26 27 27 28 28 27 25 26 25 25 21 22 22 21 19 18 19 17
28 26 29 30 32 36 38 38 39 39 39 39 37 37 27 20 18 17 17 19 20 21 23 24 25 27 28 28 29 28 26 27 26 26 25 25 23 22 21 20 19 19 19 18
31 32 35 37 37 37 40 40 39 39 38 37 37 27 20 18 18 18 20 21 22 23 25 24 27 28 27 28 30 29 29 28 27 29 25 24 21 22 21 21 20 20 19 18
23 28 32 32 38 40 39 39 39 37 35 31 24 19 18 19 20 21 21 21 23 24 25 26 29 27 27 29 30 29 29 29 30 29 26 24 23 23 23 24 23 23 23 18
29 33 34 36 39 40 39 39 40 30 24 19 19 19 20 21 22 23 22 23 24 25 26 28 28 28 28 29 29 30 28 29 29 29 27 25 24 22 19 20 24 24 24 24
39 40 39 40 39 40 38 34 27 22 21 21 22 22 22 21 23 23 24 26 27 28 28 28 28 27 28 29 30 30 29 29 30 29 28 27 25 23 21 20 20 21 22 23
38 40 39 40 38 31 24 21 21 23 25 23 23 22 22 22 23 25 27 28 28 28 27 26 25 25 27 28 30 31 30 30 30 27 26 25 23 22 23 22 21 21 21 21
40 40 39 37 31 22 24 28 30 30 23 22 22 22 25 27 27 27 28 28 28 26 26 25 24 25 27 29 31 32 31 31 29 25 23 22 24 24 24 24 22 21 20 20
38 37 30 24 27 32 33 33 32 24 24 22 22 24 25 25 27 27 28 27 27 26 26 25 25 26 28 30 32 32 31 30 28 24 22 24 24 24 24 23 23 20 19 20
33 32 32 33 33 33 32 29 23 23 22 24 26 24 24 25 25 26 27 26 26 26 26 25 25 27 30 30 32 31 30 29 27 25 24 23 22 23 25 24 23 20 20 21
35 35 35 35 35 33 26 21 22 26 27 26 25 24 25 26 27 27 27 26 25 25 26 25 27 29 28 28 31 30 29 28 26 23 22 21 20 20 21 23 23 22 21 21
35 36 34 27 22 19 20 22 25 24 26 26 25 25 26 27 26 26 26 27 27 27 27 27 27 29 28 29 30 30 29 26 24 23 19 19 19 20 19 22 23 23 23 21
26 22 22 23 23 25 24 26 26 25 26 26 27 28 28 27 26 26 26 26 27 27 27 27 29 29 29 30 31 30 28 26 23 23 22 21 20 18 18 20 23 24 23 22
22 23 22 22 23 24 25 26 27 27 27 27 27 29 28 27 26 26 26 27 27 27 28 28 29 30 29 30 31 30 29 27 27 26 25 23 22 21 21 21 21 23 23 23
27 27 26 25 24 25 26 26 26 26 26 26 27 27 27 27 27 27 27 27 26 27 27 28 29 30 30 30 30 30 30 29 28 27 26 25 25 24 23 22 21 22 24 24
25 24 25 26 26 26 25 26 27 28 28 28 28 28 28 28 29 29 29 27 26 26 27 29 29 30 31 31 29 30 29 28 28 28 27 27 26 26 24 24 24 24 23 22
25 26 27 26 27 27 28 28 28 28 27 28 29 29 28 30 29 29 28 27 27 28 29 30 26 26 27 28 29 29 29 28 28 28 27 27 26 26 25 25 25 25 25 24
28 28 28 28 28 28 28 28 27 27 27 27 27 27 27 27 28 28 28 28 29 29 28 27 25 25 24 20 19 19 20 22 24 26 28 28 27 27 27 27 27 26 26 26
27 27 26 26 26 27 27 26 26 27 29 28 27 28 28 28 28 28 29 29 26 24 23 22 19 17 16 15 14 14 14 14 15 15 17 21 26 28 28 28 28 28 27 26

GFSNGP_sfc_30mbdewp_018.txt.gz
Dewpoint
26 27 24 20 21 26 23 22 18 19 20 21 32 34 35 37 36 35 34 33 31 31 31 30 24 22 21 19 20 20 21 21 25 31 33 35 35 34 35 35 35 36 34 30
24 29 27 23 22 22 26 25 25 25 24 26 32 36 36 36 35 34 33 31 30 30 29 29 23 20 18 17 17 20 21 21 28 31 31 33 33 32 34 34 34 35 28 24
13 26 21 13 18 21 22 23 22 19 21 34 34 35 36 36 35 34 33 29 28 28 28 22 21 19 16 16 18 19 20 21 28 30 30 31 31 32 32 32 33 30 24 23
13 17 5 12 27 26 23 25 25 28 29 33 34 36 37 36 35 34 32 28 28 28 22 20 19 17 17 18 19 20 20 23 28 29 29 30 31 30 30 31 31 26 23 24
11 14 12 11 19 25 25 22 29 29 32 35 35 35 35 36 34 34 32 31 28 23 18 18 17 17 18 19 20 20 22 27 28 29 29 30 27 26 27 29 25 24 24 21
19 8 2 7 25 30 27 21 28 33 33 34 35 32 33 35 34 32 31 25 20 17 16 17 18 20 21 20 21 22 24 27 28 29 28 26 25 24 26 25 25 23 21 20
17 13 15 18 29 30 19 12 32 35 34 35 34 34 34 35 34 34 24 18 16 17 17 19 21 22 21 22 23 25 26 27 27 28 26 25 23 22 22 25 23 20 20 20
22 19 13 25 31 26 26 29 34 36 35 35 35 35 36 36 34 20 17 18 18 18 19 21 23 23 23 25 26 27 28 28 27 27 25 25 24 23 25 23 20 18 16 17
22 18 24 29 32 32 32 30 36 36 37 37 36 36 38 33 20 17 17 17 18 19 21 23 24 25 26 27 26 28 29 27 27 26 26 25 23 22 22 21 20 19 19 18
26 24 26 30 30 32 34 34 37 39 38 38 37 38 34 21 20 21 17 19 20 21 21 23 25 27 27 26 27 29 27 27 28 27 26 26 25 22 22 21 19 20 19 19
29 29 31 32 35 34 34 38 38 39 39 39 38 35 26 24 22 18 19 21 21 22 24 24 25 28 27 27 28 29 29 29 28 28 29 26 23 22 22 21 22 20 20 19
22 25 26 27 30 37 38 38 39 39 38 33 33 27 25 22 20 20 21 20 21 24 25 25 28 28 28 28 29 29 29 29 29 29 28 27 24 22 24 24 24 24 24 21
27 31 32 33 37 39 39 40 39 35 30 27 24 24 26 22 22 22 22 23 24 25 26 28 28 27 27 28 28 28 29 30 29 29 28 27 26 24 23 22 24 24 25 25
37 38 37 39 38 40 40 33 26 23 23 25 28 30 25 21 23 22 24 25 26 27 28 27 26 25 26 26 27 28 30 30 30 29 28 28 27 26 24 22 20 19 21 22
39 39 39 39 38 31 27 23 23 29 33 34 31 24 21 21 22 25 26 27 28 28 27 26 25 25 25 26 27 29 31 31 30 29 28 27 26 25 23 21 21 21 20 21
40 40 39 33 24 24 27 31 34 34 33 29 24 23 24 26 26 26 27 28 26 24 24 25 25 25 26 27 28 30 31 31 30 29 27 25 24 23 23 23 23 23 20 19
38 33 26 31 33 34 34 34 34 32 29 24 23 26 28 26 26 26 27 27 26 25 25 25 25 26 27 28 30 30 30 31 30 28 27 25 22 22 23 23 23 23 20 17
34 34 34 34 34 34 34 32 30 28 25 25 27 28 26 25 24 25 26 26 25 25 25 26 26 26 28 28 28 27 30 29 28 27 26 25 23 22 22 22 23 23 22 20
33 33 34 34 34 33 31 29 27 28 29 29 28 27 25 25 26 26 26 26 26 25 26 27 26 26 27 27 27 28 29 29 28 27 26 25 21 20 19 20 21 21 22 22
30 29 28 28 28 27 25 25 27 27 27 27 26 26 26 26 26 26 25 25 26 27 28 27 27 26 27 29 28 29 29 29 27 25 23 22 20 19 19 20 20 19 21 22
27 26 26 28 27 27 26 27 27 26 27 26 26 26 27 27 27 25 25 25 27 27 27 27 27 27 28 30 29 30 30 29 28 25 24 23 23 23 21 20 19 20 21 23
24 25 24 24 24 24 25 26 26 26 26 26 26 25 27 27 27 25 25 26 28 27 26 26 26 27 28 28 29 29 30 29 28 27 25 25 25 24 24 23 22 23 23 23
28 27 25 24 24 25 26 26 26 26 26 26 26 26 26 26 27 27 27 28 27 26 25 25 25 27 28 28 28 29 29 28 27 28 28 26 26 25 25 25 25 24 24 24
25 26 26 27 26 27 27 28 28 28 27 27 27 27 26 27 27 27 28 29 28 27 25 26 29 28 26 26 26 28 28 28 27 27 27 27 26 26 26 25 25 25 24 25
27 28 27 27 27 26 27 27 26 26 26 27 27 27 27 26 26 28 27 27 27 27 27 28 27 25 23 20 16 16 16 17 16 17 18 20 21 24 26 26 25 25 25 25
26 26 25 26 26 25 25 24 23 24 25 24 25 26 28 27 26 26 27 28 27 27 26 22 19 17 15 14 13 12 12 12 12 12 12 12 13 14 17 20 26 27 26 26
23 21 21 21 20 20 18 19 20 20 22 23 24 26 28 27 27 28 28 28 27 23 21 18 15 14 13 12 10 10 9 10 10 10 10 10 10 11 12 13 18 25 27 28

GFSNGP_sfc_30mbdewp_021.txt.gz
Dewpoint
26 26 25 20 23 25 22 21 15 15 18 19 24 32 35 37 37 36 36 35 34 32 32 32 30 25 25 24 23 23 22 22 24 28 33 34 34 34 33 34 35 35 34 31
24 28 27 23 22 23 26 25 22 23 22 26 27 34 35 36 37 36 35 34 33 31 31 30 29 26 24 22 21 22 22 23 25 29 32 32 32 33 33 33 33 34 31 26
16 25 21 16 18 21 23 25 25 22 23 31 30 32 34 36 37 36 35 34 32 31 30 30 29 25 21 19 21 21 22 23 24 30 31 31 31 31 31 30 32 33 27 24
15 16 4 11 26 24 22 22 24 23 25 29 32 35 36 37 37 36 35 33 30 29 30 25 23 21 20 19 20 22 22 24 28 30 30 30 30 30 28 28 31 31 26 24
12 14 12 9 16 21 24 15 26 25 28 33 36 36 36 37 37 37 35 33 30 30 24 22 19 19 19 21 21 22 23 25 27 29 29 29 28 27 26 28 28 26 25 22
18 8 3 7 17 30 28 20 26 29 31 33 35 30 29 37 36 36 35 33 27 21 19 18 20 21 21 22 22 23 26 26 28 28 28 28 27 26 25 24 25 25 22 20
18 15 15 19 25 30 17 12 25 33 33 35 33 33 34 37 36 34 31 23 19 18 18 20 22 23 21 22 24 26 28 28 28 27 28 27 26 25 24 24 25 24 23 21
21 18 11 24 31 23 23 29 29 35 35 35 35 35 35 36 33 26 19 18 19 19 20 23 24 23 22 24 27 27 27 29 27 27 27 26 26 25 24 25 24 22 22 22
22 18 24 26 31 32 33 30 31 35 36 37 37 36 36 33 24 19 18 19 19 20 22 24 24 25 24 27 26 27 29 28 26 27 27 26 26 25 23 23 23 22 21 22
25 24 26 28 29 30 32 32 34 36 37 38 37 37 36 23 20 21 19 19 21 21 20 22 24 26 28 27 27 28 27 28 29 27 25 27 28 25 23 23 23 21 23 22
28 28 29 29 32 33 34 35 35 38 39 39 39 38 26 22 23 24 26 22 21 21 23 23 25 27 29 28 28 28 28 28 29 29 29 28 28 24 23 23 23 24 23 23
23 25 27 27 29 34 35 36 38 39 39 38 36 29 25 27 29 27 22 22 21 24 24 25 27 28 28 27 28 28 28 28 29 29 29 29 27 25 24 24 24 24 24 24
28 32 32 33 35 37 38 39 40 38 32 29 28 27 28 28 27 23 22 22 23 24 26 27 27 26 26 27 27 27 27 28 29 30 30 29 28 27 25 26 25 25 26 26
38 38 37 38 38 40 34 27 27 28 30 32 33 33 31 27 26 24 23 25 27 28 27 27 26 25 26 26 27 27 27 29 30 30 30 30 29 28 28 26 25 24 23 23
38 40 39 34 29 25 27 32 34 34 34 33 31 29 28 26 24 26 29 29 29 28 27 25 25 25 26 27 26 27 28 29 30 31 30 30 29 29 27 26 25 24 24 22
35 28 29 30 31 33 35 34 32 32 32 31 30 29 29 27 29 30 30 29 27 25 24 25 25 26 27 27 27 28 29 30 30 30 30 29 28 27 26 25 25 24 24 23
33 30 33 33 33 33 33 33 33 32 31 30 29 29 30 30 29 28 29 29 28 26 25 26 26 27 27 27 28 27 27 27 30 30 28 27 27 27 25 24 25 24 23 26
35 35 35 34 33 32 32 32 31 31 30 29 29 29 28 28 28 28 27 27 26 26 26 27 27 27 27 27 28 27 27 28 28 29 28 28 27 27 25 24 24 23 23 24
33 32 32 30 29 29 30 30 29 29 30 30 30 30 29 28 26 26 26 26 26 26 26 27 27 27 27 27 28 29 29 29 28 27 28 28 27 27 26 24 24 24 24 23
29 30 30 29 28 28 26 27 28 28 28 28 27 26 26 27 27 26 26 26 27 27 28 28 28 27 28 28 28 29 30 29 28 27 28 27 26 26 25 24 23 23 24 24
25 25 25 26 26 26 26 27 27 26 28 27 27 27 27 27 27 26 27 27 28 28 28 27 27 27 28 28 28 28 28 28 29 28 28 27 26 25 25 26 26 25 25 25
27 27 25 25 24 25 26 27 26 26 26 26 25 25 24 26 27 27 27 27 28 28 28 28 27 27 26 26 27 27 28 29 29 28 27 27 26 26 26 26 26 26 26 26
26 26 26 26 26 27 27 27 26 27 26 26 27 27 26 27 27 27 27 29 27 29 27 28 27 25 26 28 28 27 27 28 28 27 27 27 27 26 26 26 26 26 26 26
27 28 27 26 25 25 24 25 24 25 25 25 26 26 26 25 26 27 28 28 28 30 29 28 29 28 28 28 26 23 21 20 19 18 17 17 18 18 19 22 24 25 26 26
26 25 25 24 22 22 21 19 20 20 20 20 21 22 23 25 26 27 27 27 28 28 27 28 27 25 23 20 18 17 16 15 14 14 14 13 14 14 14 15 16 17 19 24
22 21 21 20 19 18 15 15 15 16 17 18 18 19 20 22 24 25 25 26 27 28 27 25 21 19 17 16 14 13 13 12 12 11 11 11 11 11 11 11 12 13 14 17
19 17 15 15 14 14 12 12 12 12 14 15 14 16 17 18 19 21 21 22 25 27 23 18 16 14 13 12 11 11 10 10 8 8 7 7 7 8 8 9 10 12 13 16

GFSNGP_sfc_30mbdewp_024.txt.gz
Dewpoint
24 25 24 22 22 23 19 19 17 9 13 8 16 19 25 32 36 37 38 39 39 38 36 35 33 29 28 29 28 23 21 20 22 24 25 26 30 30 28 28 28 28 29 30
26 27 25 23 22 21 23 21 21 18 17 19 22 25 29 34 35 36 37 37 38 37 35 32 31 30 29 29 24 22 20 21 23 24 25 26 29 28 26 27 27 27 28 30
21 24 24 20 23 21 20 23 23 18 19 21 25 26 27 31 35 35 36 37 37 36 33 31 30 31 30 25 22 21 21 22 22 24 24 25 25 25 25 26 28 27 29 29
24 20 11 14 21 21 20 20 20 21 18 23 23 30 33 34 33 36 36 37 36 35 32 30 31 29 25 21 20 21 22 21 21 23 24 24 24 24 26 26 26 26 27 26
23 17 13 6 16 19 21 15 20 20 20 22 32 34 32 36 36 37 38 37 37 35 31 29 26 23 20 19 20 21 19 18 21 25 25 23 22 24 26 26 25 26 26 26
22 18 13 16 23 29 28 17 21 27 28 30 33 29 19 35 38 38 38 37 35 31 27 23 21 20 20 20 20 17 20 22 24 24 23 22 23 26 26 26 24 24 24 25
27 25 22 21 21 30 18 16 28 31 32 34 32 27 35 36 38 38 37 35 29 24 22 20 21 22 21 19 16 20 24 25 23 23 24 24 26 26 26 25 25 26 26 25
27 24 18 24 29 23 27 31 31 31 33 35 35 37 37 37 37 37 35 29 24 20 20 22 25 21 16 14 20 25 23 22 24 25 25 24 25 26 26 25 25 26 29 27
26 24 27 28 29 32 34 32 32 34 32 36 36 37 36 36 36 31 26 20 20 22 23 25 21 18 14 20 26 24 24 24 25 26 26 24 25 25 26 25 24 24 23 23
27 24 26 28 29 29 30 31 32 32 33 35 36 36 37 35 30 25 23 22 24 29 27 22 21 23 24 25 26 25 25 25 25 26 25 24 24 26 26 24 24 23 22 21
30 29 28 29 30 31 32 35 36 36 37 38 38 38 38 32 26 23 24 30 29 25 21 18 22 24 25 26 26 25 24 25 26 26 26 25 24 25 25 25 25 23 23 24
28 31 30 30 33 35 36 37 39 39 40 39 40 39 33 27 27 31 28 27 26 21 21 21 26 25 25 26 25 26 27 26 26 26 26 26 26 25 26 24 25 24 25 24
36 38 38 38 38 40 40 35 34 34 34 33 31 30 30 29 28 27 25 24 25 25 27 28 27 27 25 26 27 27 26 26 26 26 26 26 27 27 27 26 25 25 26 26
38 40 38 38 36 33 33 34 34 35 34 34 33 32 31 31 32 32 29 27 28 30 29 29 28 26 25 26 26 27 27 27 27 27 27 29 28 28 28 28 27 27 28 24
34 36 36 32 32 34 35 35 34 33 32 32 32 32 32 32 31 31 30 31 31 30 30 28 24 23 24 27 27 26 26 27 28 30 29 29 30 29 30 30 30 24 24 25
34 34 34 34 35 35 34 33 32 32 32 33 32 32 31 31 31 30 30 31 30 28 27 25 26 27 27 28 27 26 26 26 26 25 26 29 29 27 28 29 29 25 23 23
34 32 32 32 32 33 33 34 32 29 30 30 31 31 29 29 30 29 28 29 31 30 31 30 28 27 28 28 27 27 26 25 24 25 24 25 27 27 28 29 28 24 24 27
35 34 33 32 33 32 30 31 32 32 31 30 30 30 29 29 29 30 31 30 29 29 30 29 30 29 29 28 28 28 27 27 29 29 27 26 27 28 29 29 28 25 24 26
31 30 30 30 30 31 29 28 27 28 30 31 30 30 31 30 29 28 30 29 28 29 28 30 30 29 29 29 28 28 29 30 30 30 29 27 28 28 29 29 29 29 27 26
26 25 25 26 27 28 28 28 30 28 28 29 29 29 29 30 30 29 30 29 29 29 30 30 30 30 30 29 28 26 27 28 28 29 30 28 28 28 29 29 28 29 29 29
25 26 27 27 27 28 29 29 29 28 29 28 28 28 28 28 29 29 29 28 27 31 31 30 29 30 29 27 26 28 28 28 28 29 29 28 29 28 28 28 28 29 29 29
28 27 27 28 29 29 29 27 27 28 27 27 27 27 27 27 28 28 30 30 30 31 30 31 31 31 29 28 27 29 29 28 28 28 29 29 28 27 27 27 27 27 27 28
28 28 29 28 28 27 27 23 24 24 24 24 24 23 23 23 24 23 23 25 26 27 26 27 31 31 30 29 30 30 29 28 27 26 25 25 24 23 23 22 23 24 26 26
28 27 26 25 23 20 17 16 17 18 20 20 20 22 22 22 23 21 24 26 26 26 27 28 29 29 29 29 30 29 28 25 23 22 21 20 20 19 18 18 18 18 19 20
25 23 21 20 18 17 14 13 13 14 13 14 16 15 16 17 18 20 21 22 22 23 24 26 28 29 28 27 25 22 21 21 18 18 17 17 17 16 16 16 16 16 15 16
19 18 18 16 15 13 12 11 11 11 11 12 12 14 15 15 16 17 19 19 20 20 24 23 19 21 20 18 18 17 17 16 15 14 13 13 13 12 13 12 13 13 14 15
16 14 14 14 12 10 10 10 11 11 12 13 12 13 13 14 14 15 15 17 17 15 16 15 14 13 13 13 12 12 12 12 11 9 9 9 8 9 8 9 10 11 12 14

GFSNGP_sfc_30mbdewp_027.txt.gz
Dewpoint
22 23 22 20 17 20 19 17 14 15 8 4 7 11 16 20 26 28 34 37 39 40 40 39 38 37 34 33 34 31 28 23 21 23 26 25 23 25 27 28 26 26 25 24
27 26 24 21 20 17 16 15 13 12 12 14 19 16 19 21 26 27 30 35 38 40 40 39 37 36 31 33 31 31 26 24 22 24 25 22 22 26 27 24 24 25 25 25
19 23 22 21 24 21 18 16 18 17 17 15 18 22 22 22 26 29 31 34 36 38 39 38 37 35 30 31 34 29 24 22 23 24 23 21 22 22 22 23 25 25 25 26
23 23 14 11 18 16 17 17 15 15 15 15 15 24 27 27 28 28 31 33 35 37 38 38 36 33 32 33 28 25 22 22 22 20 19 21 21 21 21 23 24 24 24 27
28 17 14 13 10 17 17 14 16 18 17 17 24 30 27 29 29 28 29 32 35 37 37 36 34 33 32 27 22 21 22 21 18 18 21 22 20 20 21 23 24 25 24 26
25 24 19 22 21 24 24 16 20 20 20 22 25 21 21 30 30 31 34 35 36 37 37 34 32 29 25 23 23 21 20 19 18 21 21 20 21 21 23 24 24 23 23 25
28 28 26 22 22 27 17 23 27 26 24 26 25 24 34 34 31 34 34 36 37 37 34 31 27 25 23 25 25 20 20 22 22 20 20 22 22 23 24 24 25 26 28 27
33 31 21 22 26 21 30 26 26 29 29 30 33 33 33 35 34 35 36 36 34 31 28 23 25 30 30 25 21 22 25 25 21 21 23 23 23 24 25 25 26 26 30 29
27 26 27 25 24 26 29 30 30 30 31 31 32 32 33 34 35 36 35 32 28 24 25 28 28 30 29 21 27 27 25 23 22 23 24 24 24 23 23 25 26 27 27 29
28 21 22 24 26 28 29 30 31 33 34 34 34 35 36 36 36 33 29 24 25 29 31 32 33 27 25 26 28 25 24 24 24 24 24 25 25 22 24 27 28 27 26 26
28 26 25 27 29 32 35 36 37 37 38 38 39 38 38 37 32 26 27 29 32 34 34 29 24 23 26 27 27 26 23 23 25 26 27 25 24 24 24 26 28 26 27 27
30 33 35 34 37 39 39 38 38 38 38 37 37 38 35 29 27 30 33 34 31 29 28 23 27 26 25 26 25 25 25 26 28 28 27 26 25 26 26 26 26 25 25 25
35 39 39 40 37 36 35 35 35 34 34 32 32 32 31 30 29 29 32 33 31 28 29 29 27 29 28 26 28 29 28 26 26 26 26 25 27 28 27 27 27 26 25 25
37 38 39 36 34 36 36 35 34 34 33 33 33 33 34 34 34 33 31 30 28 28 29 29 28 27 27 27 26 27 27 27 27 26 28 28 28 29 29 27 28 29 31 27
35 35 34 35 36 36 35 33 32 32 33 33 33 33 33 33 31 30 30 30 29 29 28 28 27 24 22 25 27 27 27 27 28 29 29 29 28 29 28 28 27 28 29 28
35 36 36 35 34 33 32 32 32 32 32 29 29 30 29 29 29 28 27 28 29 26 25 30 30 27 26 27 26 26 26 27 27 27 27 27 26 26 28 28 26 28 29 28
35 32 34 32 32 32 31 29 27 29 29 30 30 30 29 29 29 27 27 28 32 33 33 33 33 29 28 27 27 28 28 29 29 28 28 28 28 27 27 28 28 28 29 31
35 34 32 32 31 29 29 30 30 28 27 29 31 31 31 30 31 30 31 33 33 32 32 31 31 31 30 29 28 29 30 31 30 29 29 29 29 29 28 27 27 27 29 31
32 31 30 29 29 27 25 26 28 28 31 32 30 30 31 31 32 31 31 31 31 30 27 29 29 30 30 30 30 30 31 31 31 28 28 28 28 30 28 28 29 29 29 30
26 25 24 25 28 28 28 29 31 29 30 30 30 31 30 31 30 31 31 30 31 31 32 32 32 31 30 29 30 30 31 31 30 27 28 28 29 29 29 29 29 29 30 30
25 26 27 27 29 31 31 30 30 27 27 28 27 26 25 27 28 26 24 22 22 28 27 27 26 26 28 30 31 33 33 32 31 28 29 29 29 29 30 29 29 29 29 29
27 28 30 31 29 29 27 24 25 25 25 24 25 24 24 21 22 23 24 22 23 25 26 25 25 25 26 28 28 30 31 31 31 30 29 28 27 28 28 28 27 26 26 27
29 29 30 28 28 26 22 19 23 22 21 21 21 21 19 18 17 18 18 18 20 21 22 23 24 24 25 27 29 29 29 30 30 30 28 26 24 23 23 23 23 22 21 21
29 28 26 24 22 18 16 15 15 15 17 15 16 18 16 16 16 16 18 18 19 20 20 23 24 20 23 27 28 28 29 28 27 26 24 23 23 21 20 20 19 18 17 18
25 22 21 20 18 16 14 12 11 11 11 12 14 14 15 15 15 15 17 18 17 17 18 18 16 15 19 20 19 19 20 19 19 19 18 19 19 17 16 16 15 15 15 16
21 19 18 16 15 13 12 10 11 12 12 13 13 13 14 14 14 14 14 15 15 15 15 16 15 13 14 14 14 14 14 14 13 12 14 14 13 13 12 11 11 11 12 14
17 17 16 15 12 10 11 11 13 13 13 14 12 13 13 13 14 14 14 13 13 13 13 13 13 11 9 10 11 10 11 10 10 9 10 10 9 8 8 8 8 9 10 12

GFSNGP_sfc_30mbdewp_030.txt.gz
Dewpoint
18 20 23 23 19 18 17 19 19 21 14 13 11 17 17 18 22 25 26 34 36 38 41 42 43 43 41 40 36 35 33 32 29 30 26 28 28 27 28 30 29 28 27 29
27 26 24 23 22 21 17 15 16 14 13 13 16 21 21 21 19 22 25 26 33 37 39 42 42 41 40 38 36 36 33 32 29 30 27 27 26 26 28 29 28 27 28 27
25 25 22 17 21 21 18 17 16 16 19 18 17 16 22 23 24 24 28 28 30 35 37 40 42 41 39 35 36 34 33 30 31 25 25 25 23 23 24 25 27 27 28 28
27 25 13 14 18 16 16 15 14 13 16 16 24 24 23 23 24 27 27 29 30 32 35 38 41 39 38 33 34 35 31 28 26 24 22 21 23 25 25 25 26 28 27 28
28 22 18 18 15 16 16 15 18 18 18 19 21 24 23 28 29 29 30 29 30 33 36 38 39 37 35 33 33 29 25 26 26 20 21 22 24 24 24 24 26 27 27 26
27 25 18 24 21 22 21 16 22 23 23 23 23 24 28 34 32 30 31 31 32 34 37 38 35 34 33 27 24 27 26 25 26 23 23 25 24 24 26 26 26 27 28 27
30 28 29 24 23 25 19 27 27 28 27 27 28 31 33 34 35 34 33 35 37 37 35 33 32 29 30 31 32 30 28 27 25 28 29 25 25 25 26 27 28 28 29 28
34 33 25 23 25 22 32 30 29 29 30 31 33 33 33 33 33 35 35 35 33 27 27 30 31 32 32 31 31 32 31 31 30 27 26 25 25 26 26 26 28 28 30 29
33 31 31 23 24 25 28 29 30 32 32 33 34 35 35 35 36 36 34 30 26 28 30 33 34 32 30 32 31 30 30 28 28 27 26 25 26 26 25 26 26 28 29 29
29 23 24 25 26 27 32 35 35 36 37 38 38 39 38 38 35 30 27 26 30 32 35 34 32 31 28 27 30 29 30 30 28 27 26 27 27 27 26 26 27 28 29 29
27 28 29 30 37 39 39 39 39 39 39 36 37 38 35 28 29 30 33 34 35 34 32 31 27 26 29 30 30 30 28 26 27 28 29 29 28 26 26 27 27 27 28 29
33 37 37 38 37 38 37 36 36 35 34 33 32 31 31 32 33 33 32 31 31 30 28 27 29 29 28 27 27 26 26 27 29 29 29 28 27 26 27 26 26 27 26 26
37 38 39 38 37 37 36 36 35 34 34 33 32 31 31 30 30 32 32 32 31 31 30 28 28 28 28 28 27 28 28 29 29 28 28 27 28 27 27 29 30 30 28 27
36 38 37 36 36 36 35 34 34 33 33 33 33 33 33 33 33 33 32 31 29 28 27 27 27 27 28 28 28 29 29 29 28 29 30 29 28 29 29 28 28 28 30 28
35 35 36 36 35 34 34 33 32 32 32 32 32 32 32 30 29 29 29 29 28 27 25 24 26 27 25 27 26 27 28 29 29 30 30 30 29 28 28 27 28 29 30 28
36 36 35 34 33 32 32 31 31 31 29 30 31 29 27 25 25 25 25 29 29 29 30 30 30 30 30 28 27 27 28 28 28 29 30 29 29 29 27 27 27 27 27 27
35 33 33 32 31 30 29 30 31 30 28 28 30 31 31 31 29 30 30 32 33 32 32 32 32 31 32 32 30 29 29 29 30 30 30 32 31 29 29 29 29 28 27 28
35 33 33 31 30 31 29 28 27 29 30 31 30 30 30 29 30 31 31 32 31 31 32 33 31 32 33 32 32 31 31 31 31 31 32 31 30 29 29 29 29 29 28 27
32 31 30 30 28 26 27 28 30 31 31 30 30 29 29 29 28 28 26 26 28 29 31 29 27 26 27 28 29 30 31 32 32 31 30 31 29 28 28 28 28 29 29 29
29 28 27 29 30 30 30 31 31 30 28 27 27 25 24 23 27 25 26 25 24 26 24 24 24 23 23 25 25 24 24 26 27 28 31 30 28 27 29 28 28 30 30 29
25 28 29 30 30 30 30 29 26 24 24 26 24 24 23 24 22 23 22 20 22 21 21 20 21 22 23 23 23 23 24 25 26 26 29 30 30 29 28 28 29 29 28 28
28 30 30 30 29 27 24 24 24 24 23 22 22 20 19 16 17 18 17 19 19 19 19 19 23 18 17 18 22 24 25 27 27 27 27 27 29 28 26 25 25 25 25 25
30 30 30 29 27 24 20 20 24 19 17 18 19 18 17 17 17 17 17 17 18 18 17 20 17 14 14 19 19 19 20 22 20 21 23 24 25 24 24 23 22 22 22 21
30 29 27 24 21 19 17 15 14 16 14 14 17 18 16 17 17 17 17 17 16 16 16 17 16 12 13 15 15 15 16 16 14 15 16 18 18 18 19 19 18 18 16 16
26 23 22 21 19 17 15 11 12 13 13 15 16 15 16 17 17 16 16 17 16 15 15 15 15 12 12 12 12 11 12 12 11 11 12 12 12 14 13 13 12 12 12 12
23 21 18 16 14 13 13 12 14 14 13 15 15 15 17 17 17 16 16 15 15 14 14 14 14 13 11 10 10 10 10 10 9 8 9 9 9 10 9 9 9 9 9 10
19 19 18 17 13 12 14 14 15 14 15 17 14 14 16 16 16 14 13 14 13 14 12 12 12 12 11 10 9 8 8 7 8 7 7 6 7 6 7 7 7 8 8 10

GFSNGP_sfc_30mbdewp_033.txt.gz
Dewpoint
20 24 25 24 24 24 19 22 19 19 21 21 19 20 21 24 25 25 27 36 40 40 41 43 44 45 45 42 37 34 32 32 33 34 33 33 30 29 29 31 30 29 28 27
26 28 25 23 24 24 23 21 19 21 21 21 21 22 22 23 23 25 27 29 30 38 43 44 44 45 44 39 36 35 34 34 34 33 32 30 29 25 26 27 29 30 28 29
25 24 21 19 21 21 22 23 20 16 21 24 22 22 23 24 26 27 29 30 30 31 39 44 45 45 42 38 38 36 36 34 34 35 32 26 26 26 26 25 26 28 28 29
25 24 16 19 18 15 14 19 19 19 21 23 22 28 29 29 29 29 29 30 30 33 34 40 45 44 39 39 37 36 34 31 29 26 25 27 27 26 27 29 29 28 28 29
24 20 23 19 20 20 17 20 23 23 24 25 25 27 34 34 33 31 30 31 32 35 38 40 40 37 36 36 36 31 29 28 28 28 28 27 29 30 31 30 27 27 29 28
32 20 12 23 21 23 21 22 28 27 28 27 28 26 33 34 34 34 35 33 31 32 34 34 33 30 30 31 30 31 31 29 30 30 30 29 30 31 30 27 26 28 28 28
25 20 26 30 24 25 15 23 29 29 30 30 29 33 35 35 34 35 30 29 30 32 32 32 33 33 32 32 30 30 31 32 32 33 31 31 30 28 26 26 27 27 29 28
34 29 22 28 25 19 32 31 30 31 33 34 35 36 37 37 36 31 28 30 32 33 33 33 32 32 32 30 30 31 32 33 33 31 30 30 29 28 27 27 25 26 28 29
31 30 33 26 25 30 30 34 36 38 39 39 40 39 38 30 26 27 29 32 34 32 31 31 31 32 32 31 32 33 32 31 30 31 31 29 28 26 26 26 26 26 26 27
30 30 29 30 39 40 40 39 39 36 35 37 36 30 28 30 32 33 34 34 35 33 31 30 31 30 30 31 31 31 30 31 31 31 29 28 28 28 28 26 26 26 26 27
29 33 39 39 40 38 37 37 35 34 33 31 31 31 33 33 33 34 34 34 33 32 31 29 27 28 30 31 31 30 30 30 27 28 28 29 29 29 27 26 26 26 26 27
30 39 37 36 37 37 36 35 35 34 32 32 33 32 32 32 32 31 31 31 30 30 28 29 29 29 29 29 29 29 27 27 28 28 28 28 28 28 28 27 28 29 29 28
38 39 38 37 36 36 35 34 34 33 32 32 32 31 31 32 32 32 32 32 31 30 30 30 28 28 28 28 28 27 26 27 27 28 28 27 28 27 27 28 29 29 29 30
38 38 37 37 34 34 34 33 33 33 33 33 33 33 33 32 33 32 31 30 29 28 27 27 27 27 28 28 28 27 27 28 28 28 28 28 28 28 27 25 24 24 27 29
37 37 36 35 34 33 33 32 32 32 32 32 32 32 32 31 29 29 30 29 29 29 29 29 28 28 30 31 30 29 28 28 29 29 29 29 29 28 28 28 27 26 27 28
36 35 34 33 33 32 32 31 30 31 31 29 28 30 30 30 30 31 31 32 30 28 29 29 30 31 32 32 32 32 32 30 29 29 29 30 30 29 29 28 28 28 27 26
33 32 32 31 31 31 31 31 30 29 29 29 28 29 30 30 30 29 29 28 28 28 31 29 26 27 29 27 27 28 29 30 30 30 31 30 30 30 30 29 28 28 28 28
35 33 33 32 31 30 28 30 29 29 28 28 28 28 27 26 26 24 24 25 25 28 26 25 22 23 24 24 25 25 23 22 22 22 24 25 29 31 30 29 28 27 27 28
33 31 31 30 29 29 30 30 29 29 28 28 25 25 25 26 25 24 24 23 21 20 21 20 20 21 23 22 20 19 20 21 22 22 23 24 25 25 27 29 28 27 26 27
30 31 31 30 30 30 30 30 27 24 25 24 21 19 21 21 19 20 19 21 20 20 18 18 21 15 14 14 16 18 23 22 20 20 23 24 24 25 28 28 27 27 27 29
28 29 29 29 28 27 25 25 24 23 24 20 15 16 17 17 17 17 19 18 19 16 17 21 16 12 11 15 18 17 17 17 18 18 18 18 19 24 26 28 27 26 24 24
30 30 29 27 24 24 24 23 21 20 21 17 16 16 16 18 17 18 17 17 17 16 16 17 15 10 11 14 14 13 13 14 11 12 13 15 15 17 17 19 20 20 19 19
31 30 29 26 22 21 23 19 16 14 18 16 15 15 15 17 18 16 15 16 16 15 15 17 14 11 10 12 12 10 10 11 9 9 10 11 11 13 12 12 12 13 13 14
29 27 24 23 21 19 15 18 19 15 16 18 16 15 17 15 16 16 17 16 14 13 13 14 13 11 9 9 10 9 8 8 7 7 7 7 8 9 8 9 9 9 10 10
26 24 22 21 18 16 14 15 17 16 16 18 15 15 18 18 14 14 14 14 15 13 12 12 12 12 9 8 8 8 8 7 7 6 5 5 6 5 5 6 6 7 8 9
22 19 17 16 16 15 15 16 16 15 16 15 14 10 14 17 15 14 12 12 12 13 11 11 10 11 9 8 8 6 7 4 4 6 3 2 3 2 3 4 5 6 6 7
21 20 16 15 16 16 16 16 13 13 16 12 9 10 16 14 14 12 10 8 10 11 9 10 8 6 6 8 6 6 5 1 2 4 -0 -1 -0 -0 1 2 3 3 4 4

GFSNGP_sfc_30mbdewp_036.txt.gz
Dewpoint
21 23 28 25 24 25 23 22 18 17 21 20 20 20 21 23 25 33 42 42 41 41 41 44 45 46 46 42 41 39 36 34 36 35 35 36 33 31 31 31 30 30 29 29
22 27 24 24 23 23 24 23 24 23 22 23 23 25 25 25 26 28 29 30 34 39 41 42 44 45 45 42 40 37 36 37 37 36 34 32 31 29 29 29 28 29 29 29
22 24 21 20 21 22 22 24 23 19 21 22 21 22 23 27 28 28 28 30 32 34 43 44 45 46 44 41 39 38 38 37 37 34 34 32 30 29 29 29 30 30 29 29
24 22 19 22 23 22 20 21 22 22 23 28 29 31 30 30 30 30 30 31 34 37 39 43 46 43 41 40 40 39 36 35 35 31 30 31 30 30 32 32 29 29 29 28
24 21 23 22 19 18 17 22 24 24 25 27 32 34 34 34 34 34 34 35 36 36 36 37 39 40 39 36 32 30 30 30 31 31 31 31 32 33 32 30 30 28 28 28
30 21 19 20 22 23 24 22 28 28 28 28 28 27 32 36 34 31 31 32 32 32 32 32 32 31 31 31 30 31 31 32 32 33 35 34 33 32 31 31 27 27 28 28
26 22 17 25 25 25 11 15 29 30 30 30 30 32 35 33 30 31 32 33 33 32 32 32 32 31 30 31 31 33 35 36 37 37 36 34 31 30 28 27 28 28 27 28
29 22 21 31 24 21 25 32 32 34 35 36 39 38 34 29 30 32 32 32 32 32 32 32 31 31 31 32 33 34 35 36 35 32 31 30 30 30 28 28 27 26 26 27
29 26 31 29 29 33 34 35 38 39 40 40 37 29 28 29 31 33 32 31 31 31 31 32 32 31 31 31 33 34 32 31 30 31 31 31 29 28 26 26 26 26 26 26
32 35 37 38 39 39 40 37 35 37 37 33 30 31 33 33 33 33 33 32 32 31 30 29 29 31 31 31 31 31 30 30 30 30 29 29 28 28 28 28 26 26 25 26
35 38 38 37 37 36 35 34 33 33 33 33 33 32 33 33 33 33 32 32 31 29 28 27 28 29 30 30 30 29 29 29 29 27 28 28 28 28 28 28 27 26 25 26
29 37 35 37 37 36 35 34 33 32 32 33 32 32 31 31 31 31 30 30 29 29 29 29 29 28 28 28 28 28 27 27 26 26 26 26 27 27 28 28 28 28 29 28
37 38 37 36 35 35 33 33 32 32 32 31 31 32 32 31 32 32 31 30 29 29 29 28 28 27 28 29 29 28 27 26 26 26 26 26 27 27 26 28 29 29 29 29
37 36 35 35 34 34 33 33 33 32 32 32 32 32 32 32 31 30 30 29 28 28 30 30 30 30 31 32 32 31 29 29 28 28 28 28 28 28 28 28 28 28 27 27
37 37 35 34 33 32 32 32 31 31 31 31 31 30 29 29 30 30 31 30 29 30 30 29 27 27 28 30 29 30 30 30 30 30 30 30 30 31 31 30 30 29 29 27
34 34 33 32 32 32 31 30 31 29 28 29 28 30 30 31 30 28 27 28 28 28 29 25 23 22 24 25 25 26 26 25 23 22 22 22 22 23 25 27 29 28 28 28
33 32 31 31 31 31 31 31 29 28 28 27 27 28 27 25 22 23 25 26 28 26 22 19 19 22 24 22 18 18 18 18 19 21 21 21 22 22 23 24 25 25 30 29
34 33 32 32 31 30 29 29 28 28 28 28 27 24 21 21 23 24 24 20 20 21 18 19 21 18 16 15 16 17 18 20 21 20 19 19 20 22 23 23 24 24 25 27
33 32 31 30 30 29 28 28 27 28 27 25 24 24 24 23 23 23 20 19 18 16 15 20 16 12 11 14 18 18 17 16 16 16 15 16 17 18 17 19 24 25 28 27
31 31 31 31 30 28 26 26 27 25 22 20 21 19 18 17 17 19 19 18 14 14 19 16 12 10 10 13 15 14 13 14 10 11 11 12 13 13 15 15 15 18 22 22
29 29 29 28 28 27 24 23 23 20 16 16 16 16 17 17 18 17 16 16 15 15 17 14 12 10 9 11 12 10 10 9 7 8 8 9 9 10 10 10 11 12 12 14
28 27 27 25 24 24 23 23 22 18 16 15 15 16 17 17 17 16 15 14 15 13 16 15 12 8 8 10 11 8 8 8 6 6 6 6 6 7 6 7 8 9 10 10
28 26 25 23 21 20 19 18 19 17 15 14 14 16 17 18 15 12 12 16 15 13 15 14 11 8 7 7 8 7 6 6 5 5 5 4 4 4 4 5 5 6 7 8
30 27 24 22 23 20 16 16 17 18 16 16 15 16 16 15 14 17 16 15 13 12 11 11 11 9 7 7 6 6 5 3 3 4 3 1 3 2 2 3 3 4 5 5
26 25 21 21 16 17 20 18 17 19 18 15 12 14 18 16 13 14 12 12 12 12 10 9 9 9 7 5 5 4 3 -1 -0 3 -1 -2 -1 -1 -1 0 1 2 3 3
22 20 19 17 17 17 18 17 16 17 15 13 9 11 16 15 12 10 7 7 11 9 9 7 5 1 4 6 4 4 0 -2 -0 -0 -3 -3 -3 -4 -3 -2 -1 -1 1 1
17 17 17 17 17 17 16 13 12 15 13 9 8 11 15 12 8 7 3 4 8 7 7 5 5 1 0 5 4 4 -0 -2 -0 -2 -5 -6 -6 -6 -5 -3 -3 -2 -1 -1

GFSNGP_sfc_30mbdewp_042.txt.gz
Dewpoint
21 22 23 23 24 25 24 23 21 22 22 22 23 22 21 23 31 34 40 44 45 46 48 51 52 51 51 49 46 45 43 42 39 39 38 38 36 36 36 35 34 34 35 37
23 25 25 24 24 25 25 24 23 23 22 24 25 26 26 29 32 32 33 35 38 41 42 43 45 49 50 48 46 43 41 39 38 39 37 36 35 33 33 36 37 38 38 38
20 25 23 21 23 24 23 25 24 23 24 23 24 26 28 29 30 30 33 36 38 40 43 44 44 45 47 45 43 41 41 40 39 37 35 35 34 34 35 36 39 39 38 38
20 22 17 21 26 25 25 25 25 23 23 23 25 28 30 30 30 33 35 35 35 37 40 41 41 40 40 40 40 41 39 38 37 35 33 33 35 37 38 39 38 38 36 32
20 20 21 22 22 22 20 18 23 23 26 28 32 33 34 33 33 33 33 33 33 33 34 34 34 33 33 33 34 34 34 33 33 34 35 36 37 39 39 38 36 34 31 28
23 19 17 22 25 23 22 16 25 27 30 31 32 24 32 32 33 32 32 32 32 32 32 32 32 32 32 32 33 33 34 35 37 38 38 39 38 37 35 33 31 31 29 28
23 22 25 27 24 23 16 17 26 30 31 32 27 26 33 33 32 32 32 31 31 31 31 32 32 32 33 34 35 36 38 39 39 39 38 38 36 33 31 29 29 28 28 28
26 25 24 26 25 19 22 27 28 30 32 31 33 32 32 32 31 31 31 31 32 31 31 32 34 34 34 35 36 37 37 36 34 32 31 31 30 30 29 28 27 27 26 26
30 29 31 30 25 27 29 29 30 30 35 34 32 32 32 31 30 30 31 31 31 31 32 32 33 33 33 33 32 31 30 30 29 29 30 30 28 28 28 27 26 26 26 26
29 31 32 35 36 37 36 34 36 37 36 33 32 32 31 31 31 30 30 28 29 29 29 30 31 31 31 31 30 28 28 28 28 28 27 27 27 27 27 26 25 26 26 26
31 35 37 36 36 35 35 36 36 34 33 32 32 32 32 31 31 30 29 28 29 29 29 28 29 30 31 29 28 28 28 28 28 28 27 27 27 27 27 27 27 27 27 27
24 30 29 31 35 35 35 35 34 33 32 32 32 32 31 31 30 28 28 29 29 28 28 29 28 28 28 29 29 28 27 27 27 27 27 27 26 25 26 27 27 28 28 29
30 37 36 36 34 34 34 33 33 33 33 32 31 31 30 29 29 30 28 28 28 28 27 25 23 24 25 25 26 25 24 24 21 20 20 20 20 20 20 20 20 20 21 22
36 36 34 34 33 33 32 32 32 31 31 31 31 30 30 29 28 28 28 28 28 25 23 20 21 23 21 21 22 20 19 19 19 20 20 20 20 20 19 18 16 16 18 18
35 35 35 33 33 32 32 31 31 31 31 31 30 29 28 28 27 27 27 27 22 19 19 21 22 21 18 16 15 16 17 19 19 19 20 19 17 16 16 16 16 14 14 14
33 33 33 32 31 31 31 31 30 30 30 30 29 29 28 27 26 26 26 25 20 18 20 18 16 14 14 15 16 17 16 17 15 16 16 14 14 13 14 14 14 13 12 12
32 31 31 30 30 30 30 30 30 30 30 29 28 25 25 26 26 24 20 19 20 20 17 15 12 11 12 13 15 14 14 14 11 11 12 12 11 11 11 11 9 10 10 11
35 33 32 31 30 29 29 29 30 30 29 27 24 24 24 24 24 22 19 18 19 17 15 12 11 9 10 12 10 11 12 9 9 9 9 8 8 7 8 7 6 7 7 8
34 32 32 31 30 29 29 28 28 27 25 22 22 22 23 22 21 18 15 14 15 16 14 11 11 8 7 12 8 10 10 6 5 5 5 5 3 3 5 3 3 4 4 5
33 32 31 30 30 29 28 28 26 24 23 21 21 22 21 20 18 15 14 13 15 16 14 11 9 7 6 9 7 7 6 4 4 2 3 1 -0 -1 1 0 1 1 1 2
30 30 29 28 27 28 27 25 23 22 20 20 19 19 19 18 16 15 15 13 13 16 13 11 9 8 6 7 7 4 3 1 2 1 -0 -2 -4 -3 -2 -3 -3 -2 -1 -0
28 26 26 26 25 22 20 20 21 20 18 17 17 17 17 15 14 14 14 14 13 15 14 12 10 6 6 6 6 2 1 -1 -0 -0 -3 -5 -6 -6 -5 -5 -5 -4 -3 -2
28 27 26 24 22 19 18 18 18 17 16 16 16 16 17 16 16 14 14 15 13 13 13 11 9 6 5 5 3 2 -2 -4 -2 -2 -4 -6 -7 -8 -8 -7 -7 -6 -6 -5
27 26 24 23 20 17 15 15 15 16 17 17 16 16 15 14 15 15 14 12 11 10 9 8 8 6 4 3 2 1 -2 -5 -4 -4 -5 -7 -9 -10 -10 -10 -10 -9 -8 -7
26 25 24 23 22 19 17 16 17 17 17 17 18 18 16 14 12 13 11 10 11 9 8 6 3 -0 1 1 0 -1 -1 -5 -4 -5 -6 -8 -10 -12 -12 -12 -12 -11 -9 -9
24 23 22 21 19 19 19 19 18 14 11 12 14 14 13 12 10 7 6 7 8 7 6 4 2 -2 -3 0 -0 -1 -1 -1 -3 -5 -7 -10 -12 -13 -13 -13 -13 -12 -12 -10
20 20 18 17 17 17 17 18 16 14 12 11 12 12 11 10 6 4 3 4 5 4 3 2 0 0 -2 -2 -2 -1 -1 -3 -5 -6 -9 -12 -14 -14 -15 -15 -15 -14 -13 -12

GFSNGP_sfc_30mbdewp_045.txt.gz
Dewpoint
19 18 22 20 23 26 25 25 23 23 23 23 25 24 24 25 31 38 42 44 45 47 50 53 54 54 54 54 51 50 48 47 45 44 42 41 39 38 38 37 37 36 36 38
20 25 23 21 24 26 26 25 25 24 23 25 25 26 26 30 35 35 36 39 42 43 43 44 47 50 51 49 47 46 45 43 41 39 38 37 36 36 37 38 37 38 38 39
20 25 23 22 24 25 25 26 25 21 23 26 25 26 29 31 33 35 37 37 39 41 41 42 43 46 46 45 44 43 41 40 39 37 35 35 36 37 37 38 40 40 40 40
21 23 20 23 26 25 24 25 26 25 25 25 26 29 31 32 35 35 34 36 37 38 39 39 39 41 41 42 41 40 39 37 36 35 34 35 37 39 39 39 39 39 39 38
22 21 22 21 23 22 20 18 23 24 25 26 32 33 32 34 35 34 34 34 35 35 35 35 36 36 37 36 36 36 35 34 34 35 36 38 38 39 40 39 39 38 37 34
23 20 19 22 24 25 22 19 22 23 26 29 33 27 31 33 33 33 33 33 33 34 34 34 34 35 35 35 35 35 35 36 36 37 38 38 39 38 37 35 33 32 30 31
23 21 23 26 25 24 19 20 23 27 30 32 29 30 35 33 33 33 32 32 33 33 33 33 34 35 35 35 35 36 37 38 39 39 38 37 35 33 31 30 30 31 30 30
24 23 21 28 24 21 25 25 27 31 33 34 32 33 33 32 32 32 32 32 32 33 33 34 34 34 35 36 37 36 35 32 31 31 30 30 30 30 29 29 29 28 29 28
26 26 32 28 27 27 27 26 30 32 35 34 33 33 32 31 31 31 31 31 32 32 33 33 34 34 32 31 30 30 29 29 29 28 28 28 27 28 27 28 28 28 28 28
30 31 31 31 33 35 33 31 33 34 35 34 33 32 31 31 31 30 30 31 31 31 30 29 30 30 30 29 29 28 28 29 29 28 28 28 27 27 26 26 26 25 25 25
30 31 36 36 37 35 35 37 36 35 34 33 33 31 31 30 30 29 29 29 29 29 29 29 29 29 30 30 29 28 27 26 25 23 21 19 18 19 18 19 23 21 20 20
28 30 30 29 36 37 35 35 35 34 33 33 33 32 31 30 29 29 29 29 28 29 27 26 25 24 25 25 24 23 20 17 17 17 16 16 15 14 18 19 20 19 18 19
30 36 34 35 35 36 35 35 34 34 33 33 32 31 30 28 29 29 28 28 27 25 23 23 21 19 20 20 17 16 15 15 16 16 16 16 15 14 14 15 16 17 16 16
37 35 33 34 34 34 34 34 33 33 32 32 31 30 29 29 28 28 27 27 24 21 22 22 17 15 14 13 14 15 16 18 15 16 16 15 14 14 14 13 13 13 14 13
36 36 35 33 33 32 32 32 31 31 30 30 30 29 28 28 28 27 26 21 20 21 20 17 13 12 14 14 13 13 13 12 14 15 14 13 13 12 12 11 11 10 10 10
34 33 33 33 32 31 31 31 31 30 30 29 28 28 28 28 27 25 20 20 20 18 15 15 12 12 13 13 13 10 12 13 10 11 11 10 10 10 9 9 8 8 8 9
33 32 32 31 31 31 31 31 30 30 29 28 28 27 28 27 25 22 20 20 19 17 14 13 10 10 11 10 10 10 11 9 10 9 9 8 8 7 7 7 6 6 6 7
35 34 33 32 31 30 30 31 31 30 28 27 27 27 26 25 22 19 20 18 17 14 11 10 9 8 10 7 8 9 8 7 7 7 7 6 4 4 6 4 3 3 4 4
34 33 33 31 31 30 30 30 29 28 27 27 26 25 24 23 20 18 18 17 16 13 11 10 10 7 8 9 6 7 7 5 5 4 4 3 2 1 2 2 1 2 2 2
32 31 31 30 30 29 28 28 28 26 26 25 24 22 21 20 18 16 16 15 15 14 11 9 7 6 6 7 5 4 4 4 3 3 2 1 0 -0 0 -1 -1 -1 0 0
30 30 29 28 28 28 27 27 26 24 24 23 22 21 20 17 16 15 13 12 14 13 11 10 8 7 5 6 4 5 3 3 2 2 1 -0 -1 -2 -2 -2 -2 -2 -1 -1
28 26 26 26 25 25 26 24 22 21 21 20 20 19 18 16 16 15 16 13 14 14 12 11 9 7 6 7 5 5 3 1 1 1 0 -1 -2 -3 -4 -4 -4 -3 -3 -3
27 26 25 24 23 21 21 20 20 19 18 18 18 17 16 15 14 13 13 13 13 14 12 11 9 6 5 7 7 5 3 1 0 0 -0 -1 -3 -4 -5 -6 -6 -5 -4 -4
26 25 23 19 17 17 17 19 18 18 18 18 18 17 16 15 15 15 15 13 11 12 11 10 9 6 4 6 5 4 4 2 0 -0 -0 -4 -3 -4 -6 -7 -8 -7 -6 -6
25 25 24 22 21 20 19 19 17 17 17 17 17 17 16 15 15 14 13 12 11 10 10 6 4 1 3 3 4 3 3 3 1 -0 -1 -2 -3 -5 -6 -7 -9 -9 -9 -7
21 20 20 21 21 20 20 18 15 14 14 14 15 15 14 14 12 11 10 9 9 7 8 6 5 4 2 2 2 1 1 2 1 -0 -2 -3 -4 -6 -7 -9 -10 -10 -9 -9
18 18 17 16 17 17 18 17 16 14 15 15 14 13 13 12 10 9 6 6 6 5 5 5 4 3 3 2 1 2 1 1 -1 -1 -2 -4 -6 -7 -9 -11 -11 -11 -11 -10

GFSNGP_sfc_30mbdewp_048.txt.gz
Dewpoint
17 16 15 15 15 20 21 22 19 21 20 22 23 24 23 27 29 32 34 42 45 47 50 52 54 55 55 56 55 54 52 50 49 48 47 46 46 45 43 40 39 39 40 39
20 20 19 16 16 16 20 18 21 22 20 23 25 27 27 27 31 35 39 42 44 45 46 46 48 50 51 51 50 50 49 47 45 44 43 42 40 39 39 38 38 38 38 39
18 23 22 23 24 21 21 25 25 20 22 22 25 26 27 30 33 37 39 40 41 41 42 44 46 48 47 47 47 46 44 42 41 39 38 38 37 37 37 39 41 41 41 41
21 25 22 19 26 23 22 23 24 24 23 24 24 27 30 32 35 35 36 38 39 40 41 42 44 44 44 44 43 42 41 39 38 37 37 37 37 39 40 40 40 40 39 40
27 23 20 23 24 25 24 22 23 23 22 22 28 31 32 34 35 35 37 38 38 39 39 40 40 41 40 40 39 38 37 37 36 37 37 38 38 39 40 40 39 39 37 35
28 23 22 21 23 26 25 21 22 22 23 24 30 27 26 35 35 36 36 37 37 38 38 38 38 39 38 38 37 37 37 36 37 38 38 38 39 39 37 36 32 31 29 30
29 27 25 27 26 26 20 21 24 23 26 28 29 28 34 35 35 35 35 36 36 36 37 37 38 38 37 37 36 36 37 38 38 38 36 35 34 32 30 29 29 30 30 29
30 30 25 28 25 23 25 33 29 31 30 31 33 36 35 34 34 33 34 35 35 36 36 36 36 36 36 36 37 37 35 33 31 31 28 28 27 26 25 25 26 27 30 29
29 28 32 30 27 28 33 29 31 31 32 33 36 35 34 34 33 33 33 34 34 35 35 35 35 35 34 34 34 32 30 28 27 26 26 26 26 27 25 26 27 26 24 24
32 28 31 33 30 32 31 31 31 32 34 36 34 34 34 33 33 33 33 33 33 33 33 32 31 30 29 28 27 26 26 27 27 26 25 24 22 19 16 18 18 16 17 18
32 32 34 35 35 32 34 35 35 33 35 35 35 34 33 33 32 32 32 32 32 31 31 29 29 28 27 27 26 25 25 23 22 20 13 10 9 13 14 17 19 16 17 16
31 32 33 31 34 36 36 35 35 34 35 35 34 33 33 32 32 31 31 31 30 30 28 26 26 25 25 24 23 21 17 14 15 15 14 11 9 10 19 18 18 18 17 17
33 37 38 37 36 38 37 36 36 35 35 34 34 33 33 31 31 31 30 30 28 26 25 23 22 20 18 17 14 12 11 12 13 14 12 12 11 11 11 15 16 16 15 14
39 37 35 35 35 37 37 36 36 35 34 34 33 33 32 31 30 29 29 28 26 24 21 18 15 13 12 12 13 14 13 14 12 13 13 12 13 13 13 13 13 13 12 12
38 37 37 35 35 35 35 34 34 34 33 33 33 31 31 30 29 28 26 23 23 22 18 14 10 10 12 12 9 10 10 10 14 15 14 13 13 12 11 11 11 10 10 9
36 35 35 34 34 33 34 33 33 32 32 31 31 30 30 29 27 24 22 23 22 18 14 15 11 10 12 10 7 9 11 11 11 11 11 10 10 10 9 10 9 9 9 10
35 34 34 33 33 33 33 33 32 32 31 30 30 29 27 24 24 24 23 22 21 20 18 14 9 9 9 7 6 7 7 8 11 9 9 9 9 9 8 9 9 8 8 9
37 36 35 34 33 33 33 33 32 31 30 30 29 28 26 25 23 22 21 20 19 16 13 9 9 8 5 6 6 8 8 7 8 8 8 9 7 7 8 8 7 6 7 6
36 35 35 34 33 33 32 31 30 29 29 28 28 26 25 24 23 20 19 18 17 14 11 10 10 7 7 9 6 8 8 8 6 6 7 6 7 6 7 7 6 6 5 5
33 33 33 32 32 30 28 28 28 27 27 26 25 23 21 21 21 20 20 18 16 12 9 8 6 6 6 5 5 5 7 7 5 6 7 5 6 6 6 4 3 4 5 5
29 29 28 28 27 28 28 28 27 26 27 26 24 22 21 20 20 19 16 13 13 11 10 9 8 6 5 5 4 8 8 7 6 6 6 6 5 5 4 4 4 4 4 4
28 27 27 28 27 26 27 27 26 25 24 23 22 20 19 18 18 17 16 14 13 13 11 10 9 9 7 7 6 8 6 5 5 5 5 4 4 3 3 2 2 2 2 2
27 27 26 25 24 23 23 23 23 23 22 21 21 20 17 15 14 13 12 13 13 13 12 12 10 9 8 9 8 7 6 5 5 4 4 4 3 2 1 1 0 -1 -1 -0
25 24 24 23 21 20 20 21 21 21 20 19 19 18 16 16 16 15 15 14 14 13 13 12 11 8 7 8 7 6 5 5 5 5 4 3 3 2 1 -0 -1 -2 -2 -2
25 25 24 23 21 20 20 21 19 18 17 16 16 16 16 17 17 16 16 15 13 12 12 9 8 6 7 7 6 5 4 4 4 4 3 2 1 1 0 -1 -2 -2 -3 -3
20 20 20 21 21 21 21 20 18 19 19 17 18 18 18 17 16 15 14 13 12 10 9 8 8 7 6 6 5 4 4 3 3 3 2 1 0 -1 -1 -2 -3 -4 -4 -4
17 18 17 16 17 17 18 18 17 16 17 17 16 16 16 15 14 13 12 11 10 7 7 6 6 6 5 4 4 3 3 3 2 1 -0 -1 -1 -1 -2 -3 -4 -5 -5 -5

GFSNGP_sfc_30mbdewp_051.txt.gz
Dewpoint
18 17 16 16 17 18 18 20 20 20 18 20 20 20 21 22 23 24 26 31 37 39 44 48 52 53 55 56 56 55 53 52 51 51 50 49 48 47 46 43 42 41 41 41
17 17 16 14 14 13 13 15 17 17 16 18 19 19 22 25 25 26 29 31 37 42 47 50 53 54 54 53 53 53 51 50 48 48 47 45 44 44 43 42 41 40 40 40
20 18 17 18 16 15 14 14 16 16 17 19 19 19 20 22 25 29 34 38 42 45 47 48 50 51 50 49 49 48 46 45 44 42 42 40 39 39 39 39 40 40 40 41
24 25 21 21 20 19 18 18 17 18 19 20 18 18 23 25 28 34 38 41 42 42 43 45 45 46 45 45 44 43 42 41 41 40 39 39 39 40 40 40 40 41 40 40
27 24 20 18 21 21 18 17 17 18 20 19 19 25 29 30 33 37 38 38 39 40 41 42 42 42 42 41 41 40 39 39 39 39 39 39 39 39 40 40 39 39 38 36
30 24 20 22 22 22 20 20 19 19 19 20 21 26 23 33 36 36 37 38 38 39 40 40 40 40 39 38 38 38 38 38 38 39 38 39 40 39 38 38 34 31 29 29
32 27 23 22 21 22 22 22 22 21 20 22 21 25 31 35 36 37 36 37 38 38 38 39 39 39 38 38 38 38 38 38 39 39 39 38 36 35 32 30 28 30 29 29
33 30 27 27 26 23 26 27 28 26 25 26 27 36 36 36 35 35 36 37 37 38 38 39 39 38 37 37 38 38 37 36 35 34 32 32 30 27 24 25 26 28 29 29
30 29 32 31 28 28 26 27 31 29 29 30 35 36 35 35 34 35 35 35 37 37 38 38 37 37 37 37 36 35 34 32 30 26 24 24 24 25 23 25 25 23 20 21
31 31 31 33 33 30 32 31 32 32 30 32 36 36 35 34 34 34 34 35 36 36 36 36 36 35 35 34 33 31 28 27 25 24 23 22 20 14 14 18 18 15 16 18
28 27 27 30 34 35 33 33 33 32 32 33 36 35 34 34 34 34 34 34 35 35 35 33 32 31 29 28 27 25 25 23 22 18 14 10 12 13 16 20 18 17 18 17
29 24 32 33 33 36 35 34 36 33 32 35 35 35 34 34 34 33 33 34 34 34 32 30 29 27 27 26 24 22 19 18 19 17 15 9 9 16 17 16 18 18 17 17
29 32 37 40 37 37 36 36 36 35 33 34 35 34 34 34 34 33 34 33 33 31 29 27 25 23 21 21 20 17 16 15 15 15 13 12 12 12 12 19 18 18 16 14
33 38 36 36 34 37 37 37 37 36 35 35 35 34 34 34 33 33 32 32 30 27 25 22 19 16 15 14 14 14 13 14 14 14 14 13 13 13 13 14 15 15 15 12
38 39 38 37 36 36 37 37 36 35 35 35 35 34 34 33 32 31 31 28 25 22 18 14 12 11 12 12 12 11 12 13 17 18 16 15 14 14 13 12 13 13 12 12
39 37 36 36 35 35 35 35 35 35 35 35 34 34 33 32 30 28 26 24 20 16 16 17 15 15 12 9 10 11 10 13 14 13 13 12 11 12 10 11 11 11 11 11
37 37 37 36 35 35 35 35 35 35 34 33 33 33 30 26 26 25 24 23 23 22 22 20 19 18 11 8 7 8 9 10 12 10 10 10 10 11 10 11 11 10 10 12
38 38 37 37 36 35 35 35 34 34 33 31 29 27 26 25 23 22 21 21 21 20 20 19 16 7 7 7 8 9 9 9 10 10 9 11 10 9 10 10 10 9 9 9
36 36 36 36 36 35 34 33 32 30 29 28 27 25 24 23 22 21 21 19 18 17 17 16 14 10 9 11 7 10 10 11 8 7 10 9 10 10 9 10 9 9 8 8
31 30 30 30 30 30 28 29 29 27 27 26 24 23 21 21 21 21 22 21 20 17 15 12 8 7 5 7 7 8 10 11 8 8 9 8 10 10 10 8 7 7 8 8
28 28 28 27 27 28 29 29 28 26 26 25 23 22 22 22 21 21 18 15 16 13 12 10 8 6 6 5 5 11 11 10 9 9 9 9 9 9 8 8 8 7 7 6
28 27 27 27 26 26 27 27 26 25 23 22 22 21 21 20 20 21 21 16 13 13 11 10 9 10 8 10 8 10 9 8 8 8 8 8 8 7 7 7 6 5 5 4
27 26 25 25 24 24 25 24 24 24 23 23 22 22 21 21 19 17 15 15 14 14 13 14 11 10 9 11 10 10 9 8 8 8 8 8 8 7 6 5 4 3 3 3
26 26 25 25 25 23 21 22 22 21 22 22 22 22 20 19 17 16 15 16 14 15 17 14 12 9 8 10 10 9 8 8 8 9 9 7 6 7 5 4 3 2 2 1
25 25 24 23 21 21 21 22 21 21 20 20 20 20 20 21 21 19 18 16 15 17 15 10 9 8 9 9 9 8 7 8 9 6 4 5 5 5 4 3 2 1 0 -0
20 20 20 21 22 22 22 21 20 21 20 19 19 19 19 18 17 17 16 15 13 12 12 12 10 8 8 9 8 7 7 6 6 7 6 4 4 3 3 1 1 0 -0 -1
18 18 17 16 17 17 18 18 17 16 17 19 17 17 17 17 15 14 14 14 12 10 10 9 9 9 6 6 5 7 7 6 6 4 2 2 2 1 1 0 -0 -1 -2 -2

GFSNGP_sfc_30mbdewp_054.txt.gz
Dewpoint
21 20 21 22 21 21 22 21 29 30 23 20 21 25 27 29 27 24 24 29 33 42 47 50 51 52 54 57 56 55 55 54 53 52 51 50 48 46 45 44 44 43 42 42
24 20 20 18 19 18 18 17 17 19 21 22 21 23 27 28 27 25 24 24 28 37 45 49 51 53 56 55 55 54 52 52 51 50 50 49 47 45 43 42 42 42 41 41
23 23 20 17 18 17 16 18 16 16 19 20 18 18 19 20 21 25 26 27 31 38 45 51 53 56 55 54 54 52 50 50 48 47 45 44 44 42 41 42 42 41 41 41
26 25 20 21 21 19 18 18 17 14 15 17 18 19 20 21 24 26 31 37 41 47 50 53 53 52 51 50 49 47 46 44 44 43 41 41 41 41 41 41 41 41 41 40
26 25 24 21 22 21 20 19 19 18 18 17 18 24 24 29 29 32 39 42 44 45 47 49 48 48 46 45 44 43 42 42 41 40 41 41 40 40 41 40 40 40 39 39
29 26 24 26 25 22 23 20 22 20 21 19 21 21 23 31 33 39 40 41 41 43 44 44 44 43 42 42 41 40 40 40 40 40 40 41 40 40 40 40 38 35 32 31
33 30 27 24 25 24 21 23 25 23 23 23 22 24 30 33 37 38 38 39 40 41 41 41 41 41 39 39 38 39 39 40 40 40 40 40 39 38 38 32 33 31 30 31
33 32 29 28 26 23 26 28 29 28 27 25 28 35 35 36 37 37 37 38 39 39 40 40 39 39 38 38 38 39 40 39 39 38 37 36 34 29 26 28 29 31 30 29
31 30 37 34 29 31 30 32 32 31 30 29 36 36 36 37 37 37 36 37 38 39 39 39 39 39 38 38 39 38 37 36 35 32 30 28 27 26 27 28 26 22 21 22
32 28 30 37 38 34 34 34 33 33 33 32 38 37 37 37 36 36 36 36 37 38 39 38 38 38 38 37 37 36 33 30 27 26 24 23 20 17 23 22 19 17 21 20
30 31 30 29 31 36 36 36 35 34 33 33 36 37 37 36 36 35 36 36 37 38 38 37 37 37 36 35 33 30 28 26 25 23 18 16 17 19 22 18 20 21 20 20
29 30 32 33 38 36 32 33 37 35 35 34 35 38 37 36 36 35 35 36 37 37 37 35 33 32 31 30 28 26 24 23 22 19 16 15 15 16 20 18 18 17 16 17
27 29 32 38 37 37 36 38 38 38 37 35 36 37 36 35 36 35 35 36 36 35 33 31 29 28 26 26 24 22 20 20 19 19 18 15 14 19 20 19 19 19 17 15
37 39 36 38 37 37 37 37 38 37 37 35 36 36 36 36 35 35 35 35 34 32 30 27 22 19 18 18 19 17 17 18 19 19 18 17 17 16 16 17 19 21 18 16
37 38 40 38 37 36 36 37 37 37 36 36 37 36 36 35 35 35 34 32 30 27 22 18 15 14 17 18 16 17 19 21 23 23 21 19 17 16 15 14 15 15 14 16
39 39 38 37 37 36 35 35 35 36 36 36 36 36 35 34 32 30 29 27 23 19 18 18 15 15 16 15 16 18 21 22 22 21 18 15 14 14 13 13 14 14 14 15
37 38 38 38 38 36 35 36 36 36 37 35 32 30 27 25 23 23 22 22 22 22 22 22 21 13 14 14 21 23 19 18 15 13 13 13 13 13 12 13 14 13 13 13
37 38 37 37 37 37 36 36 34 32 30 28 27 25 23 22 21 21 21 20 20 20 20 21 21 21 21 19 17 16 14 14 13 13 12 14 13 12 12 13 13 12 12 12
33 33 33 33 34 32 31 29 29 29 28 26 24 22 21 21 20 20 20 19 18 17 18 20 20 18 17 17 15 16 15 13 10 10 12 10 12 13 12 13 13 12 11 12
28 28 28 28 29 28 26 26 26 25 25 24 23 21 20 20 21 21 21 19 19 18 20 19 16 12 9 10 9 12 13 13 10 10 12 10 12 14 12 12 11 11 12 11
27 27 27 27 27 27 27 26 25 24 24 24 22 21 20 20 20 19 17 15 18 19 18 16 12 9 8 7 9 14 13 13 11 12 12 13 12 11 12 11 11 11 11 11
26 25 25 25 24 24 24 24 23 23 22 22 22 21 21 21 20 20 20 16 18 19 16 13 11 10 8 11 12 14 11 10 10 11 11 12 12 11 10 10 10 9 10 7
25 25 24 23 22 22 23 23 23 23 22 22 22 22 21 21 21 18 16 20 20 20 17 13 11 10 9 16 14 13 13 11 11 12 11 11 11 11 8 8 8 7 7 8
24 24 24 24 23 21 20 22 22 22 22 23 23 24 22 19 19 20 20 17 18 17 16 15 11 9 7 14 13 12 11 11 10 11 12 10 11 11 10 9 8 7 7 7
24 24 24 23 22 22 22 23 22 22 22 21 21 21 20 22 20 19 17 16 17 18 12 10 9 8 12 12 11 10 10 10 10 8 7 8 8 8 7 7 7 7 6 3
20 20 20 20 21 22 21 20 19 22 20 19 19 20 20 20 19 17 16 15 13 13 12 15 11 10 11 10 8 9 10 10 9 9 9 7 6 5 5 6 6 5 5 3
17 18 17 17 18 17 17 17 16 15 17 19 17 17 18 17 16 15 16 13 13 13 12 11 12 11 10 8 8 7 7 7 8 8 6 5 5 4 4 5 4 3 1 0

GFSNGP_sfc_30mbdewp_057.txt.gz
Dewpoint
22 24 24 24 25 23 22 25 26 27 28 28 28 27 25 29 28 27 28 40 43 45 46 49 52 56 55 56 57 57 56 55 53 52 51 49 48 47 46 46 46 45 44 43
20 22 24 24 26 25 22 26 27 28 27 30 26 27 26 26 28 27 25 30 42 45 48 50 54 55 54 54 53 54 53 52 51 50 49 47 46 45 44 43 43 42 42 41
22 24 23 23 22 24 25 23 22 20 21 21 25 24 27 24 26 27 26 25 29 46 50 52 55 55 54 53 52 52 51 51 50 49 47 46 44 43 42 41 41 40 40 40
24 25 21 24 23 22 21 22 20 19 18 19 19 20 22 25 25 28 27 32 45 47 52 55 56 55 54 52 51 50 49 47 47 45 45 43 42 42 41 41 40 40 41 41
26 25 24 24 23 22 20 21 21 19 19 19 19 23 27 28 30 33 37 43 49 52 54 53 52 50 49 48 47 45 44 44 43 42 41 41 41 41 41 41 41 40 40 40
32 26 22 26 28 29 26 20 24 24 23 21 21 20 24 31 36 41 44 45 47 49 49 50 49 47 46 44 43 43 43 42 41 41 41 41 41 40 40 39 39 39 37 35
32 31 31 29 27 28 22 23 25 26 26 25 25 26 29 36 40 41 42 43 45 45 46 46 45 44 43 42 41 41 41 41 42 41 40 40 40 39 39 37 31 31 31 31
31 31 28 36 33 23 26 26 28 27 28 25 31 32 34 38 39 39 40 42 42 42 42 42 42 41 41 40 40 41 41 40 40 40 39 39 37 37 34 31 30 30 30 28
27 29 37 35 38 40 40 40 36 35 35 37 36 34 36 37 38 38 39 40 40 41 40 40 40 39 39 39 40 40 39 39 38 38 37 37 30 29 30 30 29 26 26 25
30 32 29 30 36 35 41 41 42 38 39 41 40 39 37 37 37 37 38 38 39 40 39 39 39 39 39 39 38 38 37 37 36 32 29 24 25 25 23 21 20 22 22 22
30 32 33 34 31 32 35 41 38 41 35 38 41 40 38 37 37 37 37 38 39 39 39 39 39 38 38 37 37 34 32 28 26 22 18 21 23 20 18 21 23 21 21 22
25 32 29 36 38 39 36 33 37 38 38 35 39 38 38 37 37 37 37 38 39 39 37 36 36 36 36 34 31 29 25 23 21 20 17 17 20 17 19 17 17 18 20 19
23 31 32 34 38 38 37 37 38 39 39 38 37 38 37 37 36 36 37 38 37 34 31 27 22 22 26 27 25 23 22 21 20 20 20 20 18 18 19 21 20 19 18 16
40 39 38 38 37 37 37 38 37 38 37 37 37 38 37 37 36 37 37 34 30 24 20 19 18 18 20 21 21 22 24 23 23 23 22 22 22 23 22 21 21 21 19 17
39 39 38 38 37 37 36 36 36 37 38 38 39 38 37 36 35 34 31 24 20 18 17 18 18 18 21 23 23 24 24 24 22 23 23 23 23 21 18 16 16 17 19 19
39 39 39 38 38 36 36 36 36 36 34 32 29 27 26 25 24 23 22 20 19 17 16 17 19 20 21 21 22 23 24 24 24 23 23 22 21 20 18 16 16 16 15 17
37 36 37 37 38 36 35 34 32 30 28 27 25 24 23 22 21 21 21 21 20 19 20 21 22 24 25 25 22 22 21 22 22 22 21 20 18 16 14 14 14 13 14 12
34 34 35 35 35 33 30 29 28 27 25 24 23 22 21 20 19 19 20 20 19 19 19 20 21 22 22 22 22 22 21 21 20 19 19 17 15 14 13 13 14 13 12 12
30 30 30 30 30 29 27 25 25 24 23 22 20 20 20 20 20 19 19 18 17 15 17 19 20 19 20 21 20 20 19 18 18 17 16 13 14 15 14 13 12 10 10 12
27 27 26 26 25 25 24 24 23 22 22 21 21 20 18 18 18 18 18 16 18 18 19 18 18 17 18 19 19 18 17 15 13 13 13 10 11 13 10 12 13 13 11 11
24 24 23 22 22 23 23 23 22 21 21 21 19 18 18 18 18 18 16 14 18 20 19 19 18 16 14 15 17 16 14 13 14 14 12 13 13 12 12 11 11 10 10 9
23 22 22 22 21 21 22 22 22 21 21 20 20 20 18 17 17 17 18 16 18 19 17 15 14 11 12 17 17 15 14 13 11 12 12 11 10 10 9 8 9 9 7 5
23 22 22 21 21 21 22 22 22 21 20 20 20 20 19 19 19 16 15 20 18 16 14 13 11 7 12 16 14 12 11 10 10 10 10 9 9 9 8 8 8 7 6 6
23 22 22 23 21 19 19 21 21 21 20 20 20 21 19 17 17 18 17 16 16 15 13 10 8 9 12 12 11 9 9 9 9 7 6 6 6 7 6 6 6 7 6 4
19 20 22 21 20 21 21 21 20 19 18 18 18 18 18 18 15 16 16 16 13 11 9 8 9 10 9 7 7 7 8 9 9 8 7 6 4 3 3 4 5 4 3 2
17 17 17 16 16 17 17 16 16 18 16 16 16 17 17 17 16 15 14 13 13 13 13 11 10 10 6 5 5 5 6 6 7 6 4 3 2 2 3 3 2 2 0 -1
14 14 14 14 13 12 13 14 13 13 15 14 13 14 14 13 13 13 12 12 11 8 8 9 10 9 7 5 6 6 4 3 4 5 4 1 1 1 0 -1 -2 -3 -4 -3

GFSNGP_sfc_30mbdewp_060.txt.gz
Dewpoint
26 22 21 24 23 24 22 24 22 23 26 28 29 29 29 29 27 25 30 39 40 42 45 51 53 53 53 55 55 57 57 57 57 57 56 54 52 51 50 49 48 47 46 45
26 25 21 20 24 25 24 24 25 25 28 30 31 30 30 29 27 27 26 34 41 43 46 53 54 54 55 56 57 58 57 56 53 52 51 50 48 48 47 46 45 44 44 43
29 23 22 22 23 24 26 27 26 25 27 29 29 28 29 28 28 27 27 29 40 44 47 54 54 54 54 54 55 55 54 52 51 50 48 47 46 45 44 43 43 43 42 42
31 28 23 24 26 25 25 25 26 26 24 26 27 26 27 29 27 25 27 27 34 44 48 54 55 54 53 53 53 52 51 50 49 48 46 45 44 43 43 42 41 40 40 39
29 30 26 28 28 27 26 24 25 23 22 20 20 22 25 28 28 26 27 30 38 47 52 55 54 53 52 52 51 50 49 49 47 46 44 43 42 41 40 39 39 39 40 39
30 26 26 26 28 28 27 22 24 24 23 23 24 19 22 29 33 36 40 45 49 52 53 53 53 51 51 49 47 47 47 45 45 44 43 41 40 40 40 40 40 40 39 38
29 28 31 33 37 28 24 23 27 29 27 26 24 25 26 32 39 42 45 49 50 51 51 49 48 48 46 45 45 44 43 42 42 41 41 41 40 40 40 38 36 34 32 29
29 28 28 37 37 30 35 38 40 39 37 32 28 30 32 36 39 42 45 47 49 49 48 47 46 45 44 43 42 42 42 41 41 41 40 40 39 39 35 32 31 30 27 25
27 27 31 39 36 41 41 37 39 39 40 41 36 34 37 39 41 42 44 45 45 46 44 43 43 43 41 40 41 41 40 40 40 39 39 38 37 35 31 30 30 28 25 23
31 30 32 31 36 37 40 35 37 39 38 37 40 38 37 38 39 40 41 42 42 42 41 40 40 40 40 40 40 40 39 38 37 35 30 29 29 30 29 28 28 27 25 23
30 31 33 33 34 36 34 36 35 37 37 38 37 39 37 38 39 39 39 40 41 40 39 39 39 39 39 39 39 38 35 30 25 26 25 21 20 21 23 24 25 25 24 24
26 30 30 29 28 31 34 32 35 34 35 36 37 39 41 38 38 38 39 40 39 38 38 37 37 37 37 36 34 31 27 23 23 23 20 15 15 19 22 22 23 23 22 21
37 39 36 38 38 38 39 38 38 38 39 37 39 39 39 38 38 38 39 38 36 30 28 27 28 29 29 28 27 24 22 22 22 21 20 19 19 19 20 23 22 20 21 22
38 40 38 37 37 37 36 37 38 39 39 39 39 40 39 38 38 36 32 26 23 22 22 22 23 24 25 25 24 23 24 23 23 23 23 24 23 23 23 22 21 22 23 20
37 38 39 39 37 36 37 37 36 33 31 31 32 37 36 33 27 24 21 20 19 19 20 21 23 24 25 24 23 23 23 24 25 25 25 24 24 24 24 23 23 22 22 21
37 37 37 37 36 35 35 34 32 29 27 26 25 24 23 22 21 20 20 20 20 21 22 23 23 25 26 26 26 25 24 24 24 23 23 23 23 22 22 21 20 18 19 17
34 34 35 36 33 31 30 29 28 26 25 24 23 23 22 21 20 20 21 21 21 22 22 22 22 24 24 23 23 22 23 23 22 22 21 21 20 19 19 19 18 17 15 14
32 32 33 33 32 29 27 26 25 24 23 22 22 21 20 19 19 19 19 19 18 18 19 20 22 22 22 22 22 22 21 21 20 20 19 17 17 18 17 17 16 15 13 13
27 27 26 26 26 25 23 22 22 22 21 21 20 19 19 18 18 18 18 17 16 15 16 19 20 20 20 20 20 20 19 19 18 18 17 16 16 16 15 14 14 14 14 13
23 23 23 23 23 23 21 22 22 20 21 20 19 18 16 17 17 17 16 15 16 16 18 18 18 18 18 19 19 18 17 16 16 16 15 14 14 13 13 13 13 12 11 10
22 21 21 21 20 21 21 22 20 19 20 20 18 17 17 17 17 17 15 13 15 16 16 16 16 16 18 18 17 16 15 14 13 13 12 12 11 11 10 10 9 9 8 6
21 20 20 21 20 20 21 21 21 20 19 19 18 18 16 16 16 16 17 14 15 15 14 13 14 15 16 16 15 13 12 12 12 11 10 9 8 7 7 6 6 7 6 5
22 21 21 20 20 20 20 20 19 20 19 18 18 18 17 17 17 15 11 15 14 13 12 12 13 14 13 12 10 9 9 8 7 6 6 6 6 5 4 4 5 5 4 4
21 22 22 22 21 18 17 19 19 19 18 18 18 18 16 14 14 15 14 13 11 10 10 11 11 9 8 7 7 7 7 7 6 4 4 3 2 2 2 1 2 2 1 0
17 17 17 17 16 17 18 17 16 16 15 15 16 16 15 15 13 14 13 12 10 10 9 8 6 5 4 4 4 5 5 5 5 4 2 1 0 0 -0 -0 -1 -1 -1 -2
15 14 14 14 14 14 14 15 14 14 13 12 12 12 14 14 14 12 11 11 10 9 9 9 7 4 4 5 4 2 2 3 2 1 0 -1 -1 -2 -2 -3 -5 -6 -5 -5
11 12 11 9 9 11 11 11 10 10 9 8 7 9 9 10 10 8 7 6 5 4 3 3 2 2 1 -0 0 1 1 -1 -2 -3 -4 -3 -4 -3 -4 -5 -6 -7 -7 -7

GFSNGP_sfc_30mbdewp_066.txt.gz
Dewpoint
36 34 33 33 31 30 29 22 20 21 22 24 25 26 27 28 27 29 29 28 30 36 42 47 48 49 50 50 50 50 50 51 51 52 52 51 52 53 53 56 57 57 55 53
30 31 30 27 26 28 29 26 24 24 24 26 27 29 29 29 30 29 29 29 29 34 38 42 47 48 49 50 51 51 51 52 53 53 54 54 55 55 55 56 56 55 53 52
23 30 26 17 28 27 25 28 28 24 25 26 27 28 29 29 30 30 31 30 29 30 37 40 42 47 49 50 51 52 52 53 53 54 54 55 56 56 54 54 52 50 49 48
25 25 15 16 30 27 27 24 23 23 26 27 27 27 29 31 31 31 31 31 31 30 35 40 45 49 50 51 51 52 52 53 54 54 55 54 52 52 50 48 48 47 46 44
25 23 20 19 18 21 22 20 23 31 32 28 28 27 26 25 27 28 31 32 32 31 33 41 47 51 53 54 53 52 53 54 54 54 52 50 49 48 46 45 44 43 43 42
28 24 16 16 30 38 35 20 38 39 38 37 35 25 26 27 26 26 28 29 30 32 41 44 50 53 53 54 55 54 54 53 52 51 49 48 46 44 44 43 41 40 39 39
28 26 27 29 36 40 31 24 35 38 38 38 36 34 35 33 31 31 37 42 46 45 46 49 52 53 53 53 52 52 51 50 48 47 46 44 42 42 41 39 37 35 33 33
29 26 22 33 32 25 31 33 30 34 38 38 39 38 38 38 39 40 42 47 49 49 50 51 52 52 51 50 48 47 47 46 45 43 42 41 40 39 36 34 32 31 29 27
28 24 29 35 28 31 33 31 31 38 36 35 39 38 38 38 39 42 45 48 48 48 48 48 49 48 46 44 45 45 44 42 41 40 40 38 37 35 33 33 31 30 28 25
27 26 28 28 30 33 36 35 36 40 37 38 40 40 39 39 39 40 43 46 46 46 46 45 45 45 44 44 44 43 41 38 38 36 35 35 35 34 32 31 30 28 26 24
26 26 28 26 35 39 38 39 40 43 40 35 38 39 40 40 39 40 41 43 44 43 42 42 42 42 43 43 42 39 36 34 33 31 30 28 28 29 31 31 31 30 27 23
21 37 36 36 39 40 38 39 40 40 40 38 37 37 39 40 41 41 40 40 38 39 39 39 39 39 40 39 37 35 33 31 30 29 28 27 27 26 28 28 27 26 24 23
35 38 37 38 39 37 38 35 33 31 31 31 32 32 38 35 31 31 31 30 29 29 28 28 28 29 31 32 33 32 29 28 26 26 25 24 24 23 21 25 27 27 26 25
36 35 37 38 36 33 32 33 30 28 26 24 25 25 24 24 24 25 26 28 27 27 26 26 26 26 27 28 28 27 27 27 26 25 25 24 24 23 23 22 21 22 24 24
33 33 37 35 33 31 30 29 26 25 24 22 23 23 23 23 23 24 25 25 25 25 25 26 26 26 27 27 26 26 26 26 26 26 26 26 25 25 24 23 21 21 22 23
31 33 34 33 31 29 27 26 25 24 23 22 21 21 21 20 20 20 21 21 20 20 21 22 22 24 26 26 25 24 24 24 24 24 23 23 23 22 22 22 21 21 19 17
28 29 28 29 27 25 24 24 24 23 22 21 21 20 19 19 18 17 18 19 19 19 19 19 20 22 23 23 22 22 21 20 20 20 20 20 19 19 19 18 17 16 15 16
27 26 25 25 24 23 21 21 20 20 19 18 18 17 16 15 15 15 16 17 16 16 18 19 19 20 20 20 20 20 19 18 18 17 18 17 16 16 16 15 15 14 14 14
23 22 22 22 22 21 19 18 18 18 18 17 15 15 15 14 14 14 15 14 14 13 15 18 18 17 18 18 18 17 16 16 15 15 15 14 14 14 13 13 12 11 11 10
20 20 20 19 20 19 17 18 18 17 17 17 15 14 13 13 13 13 13 11 13 15 17 17 16 15 15 16 16 15 14 14 13 12 12 11 10 10 10 10 9 8 7 7
18 18 18 18 18 18 18 18 16 15 16 15 13 12 12 13 13 13 10 9 13 15 14 14 14 13 13 13 13 12 11 10 9 8 8 7 5 5 5 5 4 4 3 3
19 18 18 18 17 16 17 17 17 16 16 15 14 13 12 11 11 11 12 11 12 12 11 11 10 10 10 9 9 8 8 7 6 5 4 3 1 0 -0 -0 -0 -0 -2 -2
19 18 18 17 16 16 16 15 15 15 14 13 12 12 11 12 12 9 7 11 9 7 7 7 7 6 6 6 5 4 3 2 1 0 -1 -1 -2 -2 -2 -3 -4 -4 -3 -3
18 18 18 18 17 15 13 14 15 14 14 13 13 12 10 9 9 10 8 6 5 5 5 4 3 3 3 2 1 1 0 -0 -1 -2 -3 -4 -5 -5 -5 -5 -5 -7 -8 -8
15 15 15 15 13 13 12 11 10 10 10 10 10 10 10 10 7 8 7 6 5 3 1 0 1 0 -1 -1 -1 -2 -2 -2 -4 -4 -4 -5 -6 -7 -7 -8 -8 -8 -9 -10
12 11 11 11 11 11 9 8 8 8 8 6 6 6 6 6 5 4 2 2 1 -1 -2 -3 -4 -3 -3 -3 -4 -3 -4 -5 -6 -6 -6 -7 -7 -8 -9 -9 -10 -11 -12 -13
8 8 8 7 7 7 6 6 5 4 3 3 3 5 4 2 1 -1 -2 -2 -3 -4 -7 -7 -7 -5 -4 -4 -4 -5 -5 -6 -7 -7 -9 -9 -10 -10 -11 -12 -13 -14 -15 -16

GFSNGP_sfc_30mbdewp_069.txt.gz
Dewpoint
28 30 34 31 29 27 23 27 27 27 23 23 25 26 27 28 30 29 29 30 29 32 38 45 48 49 49 50 50 50 50 50 50 51 51 50 50 50 50 50 51 52 53 55
30 32 31 29 29 27 25 27 27 25 26 27 27 28 28 28 29 30 30 30 31 31 34 39 46 49 50 50 50 50 50 50 50 50 51 50 50 50 50 51 52 54 56 56
25 30 29 22 24 24 26 26 26 24 24 24 27 27 28 29 30 30 31 32 32 33 32 36 41 47 49 50 51 51 50 50 51 51 51 52 51 51 51 53 54 55 55 54
26 26 18 16 25 27 27 26 28 26 27 36 35 35 32 30 31 31 31 30 31 33 34 35 39 44 48 50 51 51 51 51 51 52 52 52 53 53 54 55 55 54 52 51
26 24 21 20 17 20 22 21 34 37 37 38 37 36 32 34 35 31 31 31 32 33 34 35 38 43 46 49 50 51 51 52 52 53 53 54 54 54 50 50 49 47 46 44
28 22 18 18 28 37 31 21 34 35 34 37 37 34 35 38 39 39 36 31 30 32 33 35 40 49 48 49 50 50 51 52 53 54 54 53 51 48 47 46 44 43 41 40
27 24 25 28 30 40 24 24 33 34 33 36 34 35 38 40 39 40 42 41 47 47 43 44 50 52 51 53 52 53 53 53 52 51 50 48 46 45 43 41 38 36 35 35
25 25 21 30 34 26 25 31 33 32 33 36 37 39 40 39 39 40 42 47 49 49 49 50 52 53 52 51 50 49 49 48 47 46 45 44 42 40 38 36 33 31 30 29
29 26 30 35 35 33 35 35 35 34 35 36 38 37 38 39 40 40 43 46 47 48 48 48 50 50 47 46 47 46 45 44 43 42 41 41 38 36 34 33 31 30 28 27
25 25 24 24 30 39 39 39 39 40 38 38 39 38 40 40 42 40 43 45 45 45 44 44 45 46 46 45 44 43 41 40 39 37 37 36 35 35 34 32 31 29 27 25
24 26 32 29 37 39 38 39 37 36 37 39 38 38 39 41 40 41 41 41 42 41 40 39 42 42 43 43 42 40 38 36 35 33 32 31 30 32 32 32 32 30 28 25
23 35 35 35 37 38 36 35 33 31 30 31 30 32 38 34 32 31 32 34 35 34 33 31 31 32 36 37 38 36 34 33 32 32 30 29 28 26 28 28 28 28 27 24
34 35 36 37 39 34 33 33 31 29 27 26 26 27 28 28 28 28 29 29 29 30 29 29 28 29 29 31 32 31 30 29 28 28 27 26 25 24 23 26 28 27 27 26
32 34 35 36 35 32 31 30 28 26 25 25 26 26 25 26 26 26 25 25 25 26 27 28 27 27 29 29 28 27 27 27 26 25 25 24 24 23 23 22 21 22 25 25
29 31 33 35 32 29 28 28 26 24 23 23 23 23 23 22 22 22 22 22 21 22 22 23 23 25 27 28 27 27 26 26 26 26 26 25 25 24 24 23 22 21 21 23
26 29 32 31 27 26 26 25 24 23 23 21 20 20 19 19 18 18 19 19 18 18 19 20 20 22 24 24 23 23 23 23 24 24 23 23 24 24 23 22 21 20 18 18
24 24 25 26 25 23 23 23 23 21 20 20 19 19 17 16 16 16 17 17 17 17 18 18 19 21 21 22 21 21 21 21 21 21 20 21 21 20 20 19 17 17 16 17
24 24 23 24 23 21 20 21 20 19 17 17 17 16 15 14 14 15 16 17 16 15 17 18 19 19 19 20 20 20 19 18 18 18 18 17 17 17 17 16 15 14 13 13
20 20 21 20 19 19 18 17 17 17 16 15 14 13 13 13 13 14 15 14 13 12 14 16 17 16 17 18 17 17 16 16 15 15 14 14 14 13 13 12 11 11 11 10
19 19 18 17 18 17 16 17 16 15 16 15 14 13 12 13 13 13 12 11 12 13 14 15 14 14 14 14 14 14 14 13 12 11 11 10 10 10 9 8 8 8 7 7
18 17 17 17 16 17 17 16 15 13 14 13 11 11 10 11 12 13 10 8 11 12 12 12 12 11 10 10 10 11 10 9 8 7 7 6 6 5 5 5 4 4 5 5
17 16 16 16 15 15 16 16 15 15 14 13 13 13 11 11 10 9 10 8 9 8 7 7 7 7 6 6 7 6 5 5 5 4 3 2 2 1 1 1 1 1 2 1
17 17 16 15 14 14 15 14 14 13 12 11 10 10 9 9 9 6 4 5 5 5 4 5 5 4 5 5 4 4 3 2 1 1 0 0 -0 -0 -1 -1 -1 -1 -2 -3
17 17 16 16 16 13 11 13 13 13 12 11 11 10 7 7 7 6 5 5 4 4 4 3 3 2 3 3 2 2 1 0 -0 -0 -1 -2 -1 -2 -2 -3 -4 -4 -4 -5
14 14 14 13 11 11 11 11 9 8 8 8 8 8 8 7 5 6 5 3 2 1 1 -1 -1 -1 1 2 1 0 -1 -2 -2 -2 -2 -2 -3 -3 -3 -4 -5 -6 -6 -7
12 10 10 10 10 9 8 7 7 7 6 6 5 6 5 4 3 2 1 0 -1 -3 -3 -3 -2 -0 0 -0 -1 -2 -2 -2 -2 -3 -3 -3 -4 -4 -5 -6 -7 -8 -9 -9
8 8 7 6 6 5 5 5 5 4 4 4 3 4 2 1 1 -0 -1 -1 -2 -3 -2 -2 -2 -2 -1 -1 -1 -1 -2 -2 -5 -3 -4 -4 -5 -6 -8 -9 -10 -10 -11 -11

GFSNGP_sfc_30mbdewp_072.txt.gz
Dewpoint
26 23 24 24 24 24 24 24 23 23 24 25 25 25 26 27 28 29 28 28 29 31 33 40 45 48 49 50 51 52 52 52 52 52 52 51 51 51 51 51 51 51 51 52
22 22 23 22 22 22 21 21 25 26 23 25 27 25 24 25 28 28 29 30 30 31 32 34 38 45 48 49 50 51 51 51 52 52 52 52 51 51 51 52 51 51 51 51
19 26 24 21 22 19 19 19 23 21 19 25 26 26 30 33 34 30 30 30 31 31 32 34 35 40 45 48 50 50 51 51 51 51 51 52 52 51 51 51 51 51 51 51
23 26 16 16 21 22 22 21 21 20 26 30 32 35 35 36 37 37 37 36 33 32 32 32 35 37 42 44 48 50 50 50 50 50 51 51 51 51 51 51 51 52 53 53
20 16 15 15 16 16 15 13 27 25 29 31 33 34 32 37 37 39 39 39 38 36 33 33 34 35 40 44 46 48 49 49 49 50 51 51 51 52 52 53 54 54 54 54
24 17 15 17 27 31 28 15 27 29 27 28 31 30 31 35 38 38 39 39 42 43 42 38 37 38 37 40 43 46 49 49 50 50 51 52 53 54 52 53 50 47 44 44
22 22 21 23 21 34 21 25 28 28 28 28 29 32 35 37 36 38 39 40 46 48 48 48 49 46 45 43 44 45 48 50 51 52 53 54 51 50 47 44 41 39 37 36
24 21 21 27 30 26 31 30 30 31 31 32 32 35 36 37 38 39 39 42 46 48 49 49 51 51 48 49 53 52 53 52 52 51 49 49 47 43 41 39 37 34 32 30
22 22 29 33 31 29 36 36 35 37 37 37 38 37 37 38 39 40 41 43 46 46 45 44 46 49 50 49 50 50 48 47 45 44 44 43 41 39 37 35 33 31 30 28
22 22 23 23 29 36 37 37 37 36 36 37 38 40 40 40 39 39 39 39 41 43 41 38 38 40 44 45 45 44 42 41 40 39 38 37 37 36 34 33 31 29 28 26
21 22 23 24 32 37 38 38 36 35 34 33 33 35 36 38 35 35 35 34 36 36 36 35 35 34 35 39 41 38 37 36 34 33 31 30 30 33 33 33 32 29 27 26
19 31 33 31 34 37 37 37 35 33 32 31 30 31 33 32 31 32 31 31 31 31 31 32 31 31 31 33 36 35 34 33 32 31 30 29 28 27 29 29 29 29 27 25
32 34 35 36 36 36 35 35 32 30 28 29 30 30 30 30 28 27 27 27 27 27 28 28 29 30 31 31 31 30 30 30 29 29 28 27 26 25 23 26 28 27 27 27
31 32 32 35 34 32 31 32 30 28 27 26 27 28 28 28 25 25 24 23 24 24 24 26 27 26 28 30 30 29 28 27 27 26 25 25 25 24 24 22 21 23 26 26
28 28 29 33 30 28 28 28 26 24 24 23 23 23 23 22 20 20 20 20 20 20 21 21 22 23 26 26 26 26 26 26 26 26 26 25 25 24 24 23 22 22 23 23
25 27 28 29 26 26 25 24 23 22 21 21 21 20 20 19 18 18 18 18 17 17 18 19 19 22 24 24 24 24 24 24 25 25 25 26 25 24 24 23 22 21 20 20
24 25 24 25 24 23 23 23 21 20 19 18 19 19 19 18 17 17 17 18 17 17 18 19 19 22 24 25 24 24 23 23 23 22 22 23 23 22 22 21 19 18 17 19
22 22 22 22 22 21 20 20 18 18 16 16 16 16 15 15 14 15 16 17 16 16 18 19 20 20 21 22 23 22 21 21 20 20 20 19 19 20 19 18 17 15 15 15
20 20 20 19 19 19 18 17 16 16 16 16 15 14 15 15 15 14 14 14 14 13 15 17 17 17 17 19 19 20 19 18 17 17 17 17 16 16 16 15 14 13 12 12
19 18 18 18 18 17 16 17 17 15 16 16 15 14 13 14 14 13 12 11 12 13 14 14 14 14 14 15 15 15 16 14 13 13 13 13 13 12 10 10 10 10 9 8
17 17 16 16 16 16 16 16 15 14 14 15 13 12 11 11 12 14 11 9 10 8 7 6 7 6 6 7 9 11 10 10 9 9 9 9 8 7 7 6 6 6 6 5
17 16 16 16 15 15 16 16 15 14 14 13 14 14 12 11 9 7 7 5 5 4 3 3 5 6 6 5 6 7 6 5 6 5 5 5 4 4 4 3 3 4 4 3
17 17 16 15 15 14 15 14 14 13 12 12 10 10 9 7 6 6 4 4 4 3 3 4 4 4 4 6 5 4 4 3 3 3 3 3 3 2 2 1 1 1 1 -0
17 17 16 17 16 15 12 14 14 13 11 10 10 9 7 7 7 5 4 3 3 3 3 3 3 3 3 4 4 3 3 3 2 2 1 1 2 1 -0 -1 -1 -0 -1 -2
16 16 16 15 14 13 13 11 9 8 7 7 7 6 6 6 6 5 4 2 1 1 2 1 2 2 3 3 2 2 1 0 0 1 1 0 -0 -0 -0 -1 -2 -2 -3 -3
14 12 12 12 11 9 8 8 8 7 7 6 6 7 7 5 4 3 2 1 0 -0 1 1 2 2 2 1 1 0 1 0 0 -1 -1 -1 -1 -2 -2 -3 -3 -3 -4 -4
11 10 8 7 6 7 7 7 7 6 7 6 5 5 5 4 3 2 2 2 1 1 1 1 2 1 1 1 0 0 -0 -0 -1 -2 -1 -1 -2 -2 -3 -4 -4 -5 -5 -5

GFSNGP_sfc_30mbdewp_075.txt.gz
Dewpoint
28 29 24 25 25 24 23 24 23 26 25 24 24 25 25 26 27 27 27 28 29 29 29 32 41 46 48 49 51 52 52 52 52 54 54 53 53 53 53 54 54 54 54 54
26 23 22 21 23 23 22 21 21 21 21 23 23 25 22 22 27 30 32 31 31 31 31 31 32 42 45 48 50 52 52 53 53 53 53 53 54 54 53 53 53 53 53 53
19 17 21 21 20 20 21 23 22 21 26 23 24 23 27 28 31 35 36 36 37 37 36 34 33 35 37 44 48 50 52 52 52 53 53 54 53 53 53 53 53 53 52 52
20 24 16 16 18 18 19 20 20 19 22 25 26 27 29 29 35 36 37 38 38 38 39 37 36 34 35 37 43 49 50 51 51 52 53 53 53 53 53 53 53 54 54 54
22 17 15 13 13 14 14 14 21 21 24 26 27 29 27 34 35 36 37 38 38 40 44 45 41 37 36 36 39 44 49 50 51 51 51 52 52 53 54 54 54 54 54 54
21 17 11 12 23 27 22 16 25 26 26 26 27 25 26 33 34 35 35 38 40 44 46 48 49 49 46 40 37 41 46 49 50 50 50 51 52 53 54 54 54 53 49 49
21 19 17 19 21 26 19 24 29 28 28 29 29 29 31 30 34 36 37 38 42 46 47 47 47 48 49 47 43 41 42 46 49 50 51 51 52 53 54 52 47 44 41 38
24 25 18 21 23 23 32 33 32 32 32 32 33 32 32 33 34 37 38 39 41 44 43 42 40 43 48 50 51 53 53 53 51 52 52 52 54 52 47 44 40 36 33 31
20 20 25 29 31 34 34 33 33 33 33 34 35 35 37 36 38 39 37 37 39 40 38 37 36 37 38 41 45 48 51 48 47 45 45 47 45 42 41 39 36 33 32 30
32 28 33 29 25 33 35 34 35 35 34 35 34 35 36 37 39 37 36 35 36 36 34 33 33 34 35 38 40 40 39 39 38 37 36 36 36 37 37 36 33 31 29 27
19 20 20 22 31 34 35 35 35 35 35 34 34 34 34 36 35 35 33 33 32 32 30 29 31 31 33 35 36 35 34 33 32 31 31 30 29 31 32 32 32 30 28 27
21 34 33 31 33 35 35 35 35 33 32 32 32 32 33 34 32 31 30 30 29 28 28 29 29 28 30 32 33 32 31 30 30 30 29 28 27 26 29 29 29 29 28 26
31 33 33 33 35 34 33 32 33 33 30 29 30 29 29 30 27 28 26 26 25 25 25 25 25 26 27 30 31 30 28 28 27 27 27 26 25 24 23 26 28 28 28 28
31 30 31 32 32 31 31 30 30 29 27 26 25 25 26 24 22 22 23 23 23 22 21 22 23 23 26 28 28 28 27 27 26 25 25 24 24 24 23 22 21 23 27 27
27 27 30 31 29 27 27 27 26 24 23 22 21 20 20 19 18 19 20 22 22 21 21 22 23 24 26 26 25 26 26 26 26 26 26 25 25 24 23 22 22 21 22 23
25 26 27 28 27 26 26 25 24 23 22 20 19 19 19 18 18 19 19 19 18 18 20 20 21 24 27 27 26 25 25 26 27 26 26 26 25 24 23 23 22 22 22 22
24 25 24 25 25 23 23 22 22 20 19 18 18 19 19 19 18 18 19 19 19 19 20 21 21 23 24 25 25 25 25 25 25 24 23 23 23 21 20 20 19 18 18 20
22 22 22 23 23 22 20 19 19 18 17 18 18 18 17 17 16 17 18 19 18 17 19 20 21 21 22 23 22 22 21 21 21 20 20 20 20 20 19 18 17 16 16 17
20 20 20 20 21 20 19 18 18 17 18 17 17 15 15 15 15 15 15 15 14 12 15 17 17 17 18 19 19 19 19 18 18 18 18 17 18 18 17 17 16 15 14 13
19 19 19 19 20 18 17 18 18 17 17 17 16 15 14 15 17 15 13 11 11 9 9 9 9 9 10 13 14 15 16 15 14 13 13 14 14 13 11 11 11 10 9 8
17 17 17 17 17 18 18 17 16 15 16 15 13 12 11 12 11 14 10 7 7 6 5 6 6 5 6 7 8 11 10 10 10 10 10 9 9 8 8 8 8 8 7 7
18 17 17 17 16 16 17 17 16 15 15 15 16 16 15 13 8 7 7 6 5 4 4 4 5 7 7 7 7 7 7 7 7 7 7 7 7 6 6 6 6 6 5 5
18 18 17 16 15 15 15 14 15 14 13 13 12 10 8 7 6 5 3 3 3 4 3 4 5 6 7 8 7 7 6 5 5 5 5 5 5 5 4 4 4 3 3 3
19 18 18 18 18 16 14 15 15 13 10 9 9 10 8 8 6 5 3 3 3 3 3 3 4 4 5 6 6 5 5 5 5 5 4 4 4 3 3 2 2 3 2 1
18 18 18 18 16 14 14 11 8 7 7 7 6 6 5 5 5 5 5 3 2 4 4 3 3 4 5 4 4 4 4 3 3 4 3 3 3 2 2 2 1 -0 0 0
16 14 14 15 13 10 9 8 7 7 6 6 7 7 7 6 5 4 4 2 3 3 4 4 3 4 4 3 3 2 3 2 3 1 2 2 1 1 1 -1 -0 -0 -0 -1
15 14 10 8 7 7 7 7 8 7 7 7 6 6 6 6 4 3 4 4 4 4 4 4 4 2 2 2 2 2 2 2 1 -1 1 1 1 1 0 -1 -1 -1 -2 -2

GFSNGP_sfc_30mbdewp_078.txt.gz
Dewpoint
25 31 32 34 33 32 34 34 30 28 30 31 33 31 30 27 27 29 32 34 36 37 38 38 38 47 48 50 53 54 53 52 51 53 54 55 54 55 55 55 56 55 55 54
21 23 32 24 23 23 26 29 24 28 32 33 34 27 23 27 28 35 36 37 38 38 39 40 40 39 44 49 51 53 53 53 52 52 53 54 55 55 54 55 55 55 55 54
17 19 22 21 22 22 21 22 22 20 22 28 26 26 26 26 33 36 36 37 38 38 40 44 45 46 40 37 46 51 53 53 53 53 53 53 55 54 54 54 54 54 54 54
22 20 19 20 19 19 19 21 22 23 23 28 25 27 28 30 36 35 35 35 38 41 44 47 49 49 50 49 41 42 50 52 53 54 53 54 54 54 54 54 54 54 54 54
21 18 17 15 14 13 13 15 18 19 24 26 26 27 31 31 34 35 35 36 42 46 47 47 46 46 48 49 49 48 40 50 52 53 53 53 54 54 54 54 54 54 54 53
23 19 13 14 14 24 20 13 25 26 27 27 27 27 31 32 31 34 37 41 42 45 44 43 41 42 45 48 48 48 50 53 50 52 52 53 53 54 55 55 54 54 54 52
24 22 18 16 28 27 20 26 29 29 31 31 31 32 32 33 32 37 38 39 40 42 41 39 38 39 40 41 41 44 47 52 51 52 52 52 53 53 54 55 52 47 43 38
24 21 19 24 25 28 35 36 35 34 32 32 33 33 34 34 37 39 37 37 38 39 39 36 35 36 37 37 39 41 43 43 43 44 45 51 53 51 50 47 43 39 36 34
22 22 24 30 35 35 34 34 34 34 33 34 34 34 34 35 38 37 35 35 35 36 35 33 33 34 34 35 38 37 36 35 34 35 37 40 43 44 43 42 40 37 35 33
29 25 30 39 38 35 34 33 34 34 34 34 34 34 34 35 35 34 34 32 32 32 31 31 31 31 31 33 36 34 33 32 31 31 30 30 34 35 36 35 34 32 30 28
34 35 35 38 39 35 34 34 33 33 32 32 32 32 33 34 32 31 30 29 29 28 28 28 27 28 29 32 33 32 31 31 30 29 28 27 27 29 30 31 32 30 28 27
33 34 36 36 34 34 33 32 33 32 31 30 30 30 30 29 27 26 25 24 24 24 24 24 25 26 27 30 31 31 29 29 29 28 27 26 25 25 28 29 29 29 29 28
30 30 33 34 32 32 31 31 31 30 28 27 27 26 25 24 22 22 21 21 21 22 23 24 25 25 26 29 28 27 27 27 26 26 25 25 25 24 23 26 28 28 28 28
28 29 31 31 30 29 29 29 29 27 25 23 23 22 22 20 20 20 20 21 21 21 22 23 25 26 27 27 27 27 26 27 26 25 24 24 24 23 23 21 20 22 26 26
26 27 30 29 28 27 27 27 26 24 23 21 21 20 19 18 18 19 20 21 21 20 21 22 23 23 28 28 26 26 26 27 26 26 26 25 24 24 23 22 21 21 22 23
25 27 27 27 27 25 24 24 23 22 21 20 19 19 19 18 18 18 19 19 17 18 19 20 20 24 25 25 26 26 25 25 25 24 23 22 21 20 19 19 19 19 21 20
23 23 24 24 25 23 22 22 21 20 20 19 20 21 20 18 18 18 18 18 18 18 19 20 20 22 24 25 23 23 22 22 23 24 22 21 19 18 18 17 16 16 16 18
24 23 24 24 25 23 21 20 20 19 19 19 18 17 16 15 14 15 16 16 15 14 16 18 20 20 21 22 22 22 20 19 18 19 19 19 19 19 18 17 16 15 15 16
22 22 22 22 22 20 19 19 19 19 19 18 17 16 16 15 14 14 13 12 11 10 11 13 12 13 15 17 18 19 17 17 17 17 16 15 16 16 15 15 14 14 14 13
19 19 18 18 19 18 17 19 18 17 18 16 15 14 12 14 16 13 10 9 9 9 9 9 10 9 10 12 13 14 14 15 14 13 13 13 14 14 13 13 13 12 11 10
18 18 18 18 17 18 18 17 16 15 16 16 14 12 11 10 9 10 8 7 7 7 7 7 8 8 8 8 10 12 12 11 11 12 11 11 10 10 11 10 10 10 10 9
19 17 17 17 16 16 17 16 15 15 15 14 15 16 15 12 8 6 6 6 6 6 6 7 9 9 10 9 10 9 9 9 9 10 10 9 9 9 8 8 8 8 8 7
19 18 17 16 15 15 15 15 15 15 14 14 14 10 8 7 6 5 3 4 4 5 5 7 7 8 9 10 10 10 9 8 7 8 8 7 7 7 5 6 7 6 3 5
18 18 18 18 19 16 14 15 15 13 11 9 9 9 12 10 8 6 4 5 7 6 5 6 6 7 8 9 8 6 6 8 8 7 7 6 7 7 5 4 4 4 3 3
19 18 18 17 16 15 15 12 9 8 8 7 7 6 6 6 6 5 6 5 4 7 6 4 7 7 7 7 6 7 7 6 4 6 5 5 5 5 4 3 3 1 3 3
17 16 15 16 15 13 10 9 8 8 8 8 8 9 9 8 7 8 7 5 6 5 7 7 5 5 6 7 6 5 6 5 3 3 4 4 3 5 3 1 2 2 2 1
17 16 12 9 8 8 9 10 12 10 11 9 8 8 8 8 6 6 6 7 7 7 8 8 7 5 3 4 4 4 4 5 3 2 4 3 3 3 3 1 1 -0 0 -0

GFSNGP_sfc_30mbdewp_081.txt.gz
Dewpoint
29 27 27 35 32 36 35 35 32 33 36 36 40 41 42 38 36 37 37 38 38 40 43 45 47 49 50 50 54 54 52 52 53 55 55 56 55 55 56 56 56 55 55 55
24 24 22 24 30 33 33 36 36 35 35 39 35 36 39 39 36 36 36 37 39 44 47 48 48 48 49 50 51 55 53 52 52 53 54 54 55 55 55 56 56 56 56 55
20 22 26 24 23 24 29 36 35 30 30 33 33 37 32 36 35 34 35 41 46 47 46 45 45 45 46 48 50 51 51 54 53 53 53 54 55 55 54 54 55 56 56 55
22 22 18 24 26 24 24 24 23 22 29 32 32 32 32 35 34 37 43 45 45 45 43 43 42 42 44 47 46 47 48 50 52 55 54 53 53 54 55 55 54 54 55 55
19 20 22 18 18 16 16 17 25 19 29 29 31 32 31 33 37 42 43 44 44 42 41 40 39 39 42 43 43 43 44 46 50 49 49 54 53 53 54 55 54 54 54 54
22 22 18 19 23 28 23 21 32 33 33 32 32 31 33 38 39 39 40 41 41 40 38 36 36 37 38 39 40 40 42 44 44 44 44 46 51 55 54 54 54 54 54 54
23 22 25 24 30 29 20 30 35 34 34 34 33 34 37 39 37 36 36 36 38 37 35 34 34 34 36 36 35 38 39 39 39 38 39 41 44 51 55 55 54 54 51 44
25 23 20 28 29 26 37 36 35 34 35 35 35 35 36 36 34 33 33 32 33 33 33 31 31 32 33 33 33 36 36 35 34 34 33 34 37 41 44 50 50 45 41 36
25 24 35 40 39 41 40 38 37 35 35 35 34 34 35 33 32 31 30 30 30 30 30 29 28 29 29 31 32 34 33 32 31 30 29 30 30 32 36 38 39 36 36 32
28 36 38 39 38 37 36 33 34 34 33 33 32 32 32 30 29 28 27 27 27 27 26 25 26 27 28 30 32 32 31 30 29 27 27 27 28 29 29 30 33 32 30 28
34 37 38 37 38 35 34 34 33 32 31 31 30 30 29 27 26 25 24 24 23 23 23 24 25 26 27 29 29 30 29 28 27 26 26 26 27 27 27 28 29 29 28 28
29 34 35 34 35 35 32 31 29 30 28 27 28 27 26 24 23 22 21 21 21 22 23 24 25 25 27 28 27 27 26 26 26 26 25 25 24 24 28 28 29 29 29 28
31 36 34 32 30 30 30 28 27 25 25 23 23 23 22 21 21 21 20 20 21 22 22 23 24 26 27 28 28 26 25 25 24 24 24 23 23 22 21 25 27 28 29 29
27 35 32 28 27 27 27 26 25 22 22 22 21 20 20 19 20 20 20 21 21 21 21 23 23 23 26 27 26 27 26 25 25 24 23 23 22 22 21 20 19 20 24 25
26 29 28 27 25 25 25 24 22 21 21 20 20 19 18 18 18 18 20 20 19 19 19 20 21 22 24 25 24 24 24 23 23 22 22 22 22 22 21 21 20 19 19 19
25 25 25 26 24 23 23 22 21 21 20 20 19 18 18 18 17 16 16 17 15 15 17 18 19 22 24 22 21 21 21 23 22 21 20 19 18 17 17 17 16 15 15 15
22 22 22 25 22 22 21 21 20 19 18 17 18 19 17 15 15 14 14 14 13 14 16 17 18 21 22 23 21 20 19 19 19 19 19 19 18 16 16 15 14 14 14 15
25 24 25 24 22 20 19 19 18 17 16 16 16 14 13 12 12 12 13 12 11 10 11 15 17 18 20 21 19 19 19 18 17 17 17 16 16 16 15 14 13 12 13 13
21 20 20 20 19 18 18 17 17 17 17 16 14 13 13 12 11 11 11 9 8 8 9 12 12 13 14 16 16 17 14 14 14 15 15 14 14 14 13 12 12 12 11 10
18 18 18 18 18 16 16 16 15 15 15 14 13 12 11 11 13 9 8 8 9 9 10 11 11 10 11 12 12 13 13 13 12 11 11 11 11 10 10 10 10 10 9 9
17 16 17 16 16 16 16 16 15 14 14 14 11 10 9 9 8 9 7 6 7 8 9 10 11 11 10 9 10 10 11 10 10 10 10 9 7 7 8 7 7 6 7 6
16 16 15 15 15 14 15 15 15 14 14 14 14 13 11 8 6 6 6 6 7 7 8 8 10 10 10 11 10 9 8 8 8 7 7 5 4 5 5 4 2 3 5 2
17 17 16 15 14 14 15 14 13 12 11 11 11 8 7 7 6 5 5 6 6 6 7 7 8 9 9 7 6 6 8 7 6 6 6 5 3 2 3 4 4 1 2 2
18 17 16 16 16 15 13 14 13 11 9 9 8 10 11 9 8 6 6 9 4 4 5 8 8 7 5 7 7 3 3 3 5 5 4 4 5 4 2 -1 -2 1 2 1
17 17 17 16 15 15 15 13 10 9 9 9 9 8 6 7 4 6 6 5 9 5 3 3 5 7 6 4 4 7 3 4 2 3 5 3 4 0 -1 1 2 2 1 -2
17 16 16 16 15 16 16 14 11 12 11 10 9 8 7 9 10 9 7 6 7 8 7 2 1 1 2 4 3 4 4 1 -2 -1 3 2 3 3 -0 -0 -0 -0 -0 -2
18 17 12 10 9 10 13 14 12 11 10 9 9 11 9 7 6 7 5 6 5 5 6 7 5 3 2 3 2 3 3 3 1 1 3 2 2 2 -1 -3 -3 -3 -1 -1

GFSNGP_sfc_30mbdewp_084.txt.gz
Dewpoint
27 29 28 28 30 34 33 35 32 33 34 37 40 42 44 45 42 38 43 45 46 46 45 45 45 46 48 50 53 54 53 55 55 55 55 55 54 54 55 55 56 55 55 55
22 24 23 25 24 35 36 35 35 35 34 40 44 44 44 44 43 42 45 45 44 43 43 43 43 44 46 47 49 51 53 55 55 55 55 55 55 55 55 55 54 55 55 55
22 23 22 20 24 28 34 35 35 33 33 41 42 40 42 43 43 44 44 43 41 41 41 40 40 41 44 44 45 46 47 48 52 51 54 55 56 56 55 55 55 55 55 55
25 21 12 19 20 21 29 30 35 34 36 40 39 39 36 41 44 43 42 41 40 39 38 37 37 38 40 41 41 42 42 45 46 46 47 48 50 55 55 55 55 55 56 55
19 18 17 13 14 24 19 29 33 32 37 38 37 38 38 40 42 42 41 39 38 37 35 35 35 36 37 37 37 38 38 39 40 41 43 44 45 46 50 55 55 55 55 55
22 18 13 18 25 26 28 27 34 33 33 33 36 35 35 36 35 35 37 36 34 33 32 32 32 35 35 35 35 35 36 35 35 36 37 39 40 42 45 47 55 55 55 55
22 20 22 24 33 33 25 29 35 35 35 36 36 36 34 34 32 32 32 32 33 31 29 29 30 31 32 33 33 34 34 33 32 31 31 33 35 37 41 42 44 54 54 45
23 21 18 37 33 29 35 35 36 36 36 36 35 34 32 31 30 29 29 29 30 29 28 27 27 29 30 30 31 33 32 30 29 28 28 29 30 32 34 36 38 37 36 33
24 22 37 39 39 38 39 37 36 36 35 35 34 32 31 29 27 26 26 26 26 26 25 25 26 27 28 29 30 31 30 28 27 27 27 28 28 28 29 32 33 32 31 29
29 35 36 37 37 36 36 34 34 35 34 33 32 30 28 27 25 24 23 23 24 23 24 24 25 26 28 28 29 29 28 27 26 26 25 26 27 28 27 28 29 29 29 27
33 34 36 36 36 36 31 33 31 29 29 29 29 26 25 23 23 22 21 22 22 23 23 24 25 25 27 27 27 27 26 26 26 25 24 24 26 27 27 28 28 27 27 26
27 31 33 31 35 36 32 28 27 26 25 24 25 24 23 22 21 20 20 21 22 22 23 23 24 25 25 27 26 25 24 24 25 24 23 23 23 23 25 26 28 29 30 28
31 32 31 31 31 30 28 25 24 23 23 21 21 21 20 20 20 20 20 20 20 20 21 22 22 23 25 25 26 25 24 24 23 22 22 21 21 20 19 20 20 23 25 27
33 36 29 30 27 26 24 23 22 21 21 20 19 19 19 18 18 18 18 19 19 19 19 20 21 21 23 22 23 22 22 21 22 22 22 21 21 21 19 18 17 17 19 21
27 28 26 25 24 25 24 22 21 20 19 19 18 17 16 15 15 15 17 16 16 16 17 18 19 20 21 21 20 21 21 21 20 19 18 18 18 17 16 16 15 15 16 16
26 26 26 23 22 22 22 21 20 19 19 18 16 16 15 14 14 13 13 13 13 13 15 15 17 19 21 19 18 19 19 19 19 18 17 16 16 15 14 14 13 12 12 13
21 21 24 22 20 19 20 20 18 17 17 16 16 16 14 13 12 11 11 12 11 12 13 15 16 18 19 18 18 18 17 17 17 16 16 16 15 14 13 12 11 11 11 12
22 22 22 22 20 18 18 18 17 16 15 15 14 13 11 10 10 10 10 10 9 10 11 13 15 15 17 17 16 16 17 16 16 15 15 14 14 13 12 11 11 10 9 8
19 18 18 18 18 17 17 16 16 15 15 14 12 11 10 10 10 10 9 8 8 8 10 12 13 13 13 15 14 15 14 13 12 13 12 12 11 11 10 9 8 8 7 6
17 17 16 16 16 15 14 15 15 13 13 13 12 10 9 9 9 8 7 7 9 9 11 12 12 11 11 11 12 12 11 11 10 9 9 9 7 7 7 7 7 7 6 5
14 14 14 14 14 14 14 14 13 12 12 12 10 8 8 8 9 7 6 5 8 9 10 11 11 11 10 9 9 9 9 8 7 6 6 5 5 4 4 4 4 3 3 3
14 13 13 13 13 13 14 15 14 13 13 11 10 9 7 5 5 6 6 6 7 7 8 9 9 7 7 8 9 8 7 7 6 5 3 3 3 2 0 1 2 1 -0 -0
15 15 14 13 13 13 14 13 13 12 11 11 9 8 7 7 6 5 3 5 7 8 8 7 6 7 5 4 4 5 6 5 5 4 2 1 1 1 1 1 0 1 -0 -2
15 14 14 15 14 13 11 13 13 11 9 10 11 11 8 6 6 8 8 4 3 4 7 7 6 4 5 5 3 2 1 3 3 2 3 2 0 -1 -3 -2 -1 -1 -2 -2
17 17 17 17 16 15 14 15 13 10 9 9 8 6 6 7 5 6 6 9 6 2 2 2 4 4 3 4 3 0 -2 -2 1 2 2 1 -1 -2 -2 -1 -2 -2 -3 -5
17 17 16 16 15 16 16 15 13 12 10 8 8 7 7 6 7 8 7 7 8 6 3 0 -1 1 1 1 2 2 -0 -1 -0 2 1 0 0 -2 -3 -4 -4 -3 -3 -4
17 15 14 13 13 14 13 12 10 10 10 7 6 5 6 6 6 6 5 4 4 5 6 6 4 5 5 1 1 1 2 1 -1 0 0 1 0 -1 -3 -5 -5 -4 -3 -4

GFSNGP_sfc_30mbdewp_087.txt.gz
Dewpoint
24 26 27 27 28 28 32 33 30 32 34 36 41 41 42 45 46 44 42 41 42 42 42 43 44 46 46 47 48 53 55 56 56 56 56 56 56 56 56 56 56 55 55 55
23 23 24 23 23 26 28 34 35 35 35 38 41 45 44 44 46 43 41 41 40 40 39 39 40 42 42 44 45 47 48 51 53 55 55 55 55 56 55 56 56 55 55 55
20 24 22 19 20 16 31 35 34 32 37 40 42 41 43 44 46 42 41 39 38 37 37 37 38 39 39 39 40 40 41 42 43 45 46 47 50 55 55 54 55 55 55 55
22 22 14 16 18 17 21 33 34 34 36 41 41 43 45 47 43 41 39 38 37 35 35 35 36 37 37 37 37 37 36 36 38 39 41 43 45 45 46 49 55 55 55 55
18 17 16 16 16 27 27 26 33 34 36 41 39 38 38 40 39 38 37 36 34 33 32 32 34 36 36 35 35 35 34 33 34 33 36 37 38 39 41 43 46 48 55 55
21 18 12 15 25 33 29 24 35 37 39 39 39 36 34 34 35 35 34 33 32 30 29 29 30 33 34 34 34 33 32 31 30 29 31 32 33 35 36 39 41 44 46 44
24 21 20 23 33 34 22 27 37 38 37 38 35 35 33 33 33 32 31 31 31 28 27 27 28 30 31 32 33 32 30 29 28 28 29 29 30 31 33 35 38 37 35 32
25 22 18 35 34 24 34 37 37 37 36 34 32 31 30 29 28 27 27 26 26 26 25 26 27 28 29 29 31 31 29 27 27 27 28 28 28 29 30 32 32 32 31 30
25 24 36 36 36 38 38 37 37 37 35 34 32 30 28 26 25 24 24 24 24 24 25 25 26 27 27 28 30 29 28 26 26 26 26 27 27 27 27 29 29 29 28 27
32 35 36 36 34 35 32 30 31 33 32 32 30 30 28 26 24 23 22 22 23 24 24 24 25 25 26 27 28 27 26 26 25 24 24 24 26 26 26 27 26 25 25 25
30 32 33 34 36 32 31 30 29 26 26 29 28 27 25 23 21 21 21 22 23 23 23 23 24 25 26 26 26 25 25 25 25 24 24 23 23 23 24 26 27 25 25 25
26 30 30 28 33 33 30 28 26 25 23 23 23 23 22 21 21 20 20 20 20 21 21 22 22 22 23 25 24 24 23 23 23 22 21 22 21 21 22 22 24 25 25 25
30 31 30 30 31 29 25 24 22 21 20 20 20 20 20 19 19 19 18 18 18 19 19 20 20 20 21 22 22 21 22 21 21 21 20 20 19 18 17 17 19 20 22 22
32 32 29 26 25 24 23 22 21 20 19 19 19 18 18 16 16 16 16 18 17 17 17 18 18 19 20 20 20 20 20 19 18 18 17 17 16 15 15 14 14 14 17 19
27 27 25 25 24 24 23 21 20 19 18 17 16 15 14 13 13 13 14 15 15 15 15 16 16 17 19 18 18 18 18 18 17 16 16 15 15 14 13 12 12 12 12 12
26 28 24 22 21 21 21 20 19 18 17 16 15 14 13 13 12 12 12 12 11 11 13 14 15 17 17 17 16 16 16 16 16 16 15 14 13 12 11 11 10 9 9 10
22 20 23 21 19 19 19 18 17 17 15 14 14 14 13 12 11 10 10 11 10 10 11 13 13 15 15 15 16 16 16 16 15 15 14 13 13 12 11 10 9 8 7 8
21 21 22 21 19 18 17 17 16 16 14 14 13 11 10 9 8 8 9 9 8 8 10 12 13 13 14 14 15 14 14 14 14 13 12 12 11 10 10 8 7 6 6 5
18 17 19 18 18 17 16 15 15 14 13 12 10 9 9 8 8 8 7 7 7 7 9 12 13 11 12 14 12 13 11 10 11 10 9 9 8 8 8 7 6 5 4 3
16 15 15 15 16 14 14 14 13 12 12 11 10 9 8 8 8 6 6 6 7 9 11 11 11 11 10 10 10 9 9 9 8 7 7 6 5 5 5 4 4 3 2 0
12 12 12 12 13 13 13 13 12 11 11 10 9 8 7 7 6 6 5 5 7 9 10 9 8 9 9 8 8 8 7 6 5 4 4 3 2 2 2 2 1 1 0 -1
12 12 12 12 12 13 14 14 13 12 11 10 9 7 3 4 4 5 6 6 8 8 8 8 6 6 6 7 7 6 5 4 3 3 2 1 -0 -0 -0 -1 -1 -2 -3 -3
13 13 13 12 11 12 13 12 12 11 11 10 9 8 8 8 7 4 2 7 8 8 7 6 5 3 3 3 4 3 3 3 2 1 0 -0 -1 -1 -0 -0 -2 -2 -3 -4
13 13 13 13 13 12 11 12 12 11 10 9 6 6 6 5 7 8 5 3 4 6 6 5 4 5 3 2 0 1 2 2 2 1 0 -2 -3 -3 -3 -2 -1 -3 -4 -4
14 14 14 14 14 13 13 13 13 10 8 7 7 7 8 7 4 6 7 6 3 1 1 1 2 2 2 -1 -2 -4 -3 0 0 0 -0 -1 -2 -2 -3 -3 -3 -3 -5 -6
17 16 16 16 16 16 16 16 13 12 9 7 7 4 3 5 6 6 6 7 6 4 2 -1 -1 -0 -1 1 1 -1 -2 -1 -0 -0 -0 -0 -2 -3 -4 -5 -6 -5 -4 -5
17 16 15 14 14 14 13 13 12 10 9 6 5 5 5 5 6 6 4 4 4 4 4 4 4 4 3 1 1 1 1 0 -2 -2 -2 -2 -2 -3 -4 -6 -7 -7 -7 -7

GFSNGP_sfc_30mbdewp_093.txt.gz
Dewpoint
24 26 28 25 23 24 26 28 25 22 23 27 32 39 42 42 40 40 38 38 37 37 38 38 39 40 41 43 47 55 55 54 55 55 56 56 56 55 55 56 55 55 55 55
18 24 22 19 18 22 24 24 25 25 28 33 40 39 43 41 40 38 37 37 35 35 36 37 37 38 38 38 39 41 42 43 45 47 47 48 49 54 55 55 55 55 55 55
15 23 17 9 18 14 17 19 28 25 30 37 38 37 40 40 38 36 35 34 34 33 32 33 36 36 35 35 36 35 35 36 38 40 41 41 43 44 44 46 48 50 51 53
18 21 5 13 20 20 20 22 32 33 35 39 38 37 36 38 36 35 33 32 32 32 32 32 34 36 34 33 32 33 32 31 33 35 36 37 38 38 39 42 44 44 40 38
17 15 15 15 27 26 23 19 35 36 37 40 38 35 32 35 35 33 33 32 31 31 30 31 33 34 34 32 30 30 29 29 30 31 32 33 34 35 37 40 39 36 34 33
21 14 7 18 29 34 33 11 34 36 39 40 39 34 30 31 31 30 29 28 27 28 28 29 31 32 32 31 29 28 28 29 30 30 30 31 32 33 35 35 34 32 30 30
21 17 19 32 34 33 17 22 33 34 34 36 30 32 30 29 28 27 25 26 26 26 26 27 28 30 29 29 29 28 27 27 28 28 28 30 30 31 32 32 31 30 28 28
21 20 17 34 32 27 34 36 36 33 32 30 30 29 28 27 26 25 23 24 25 25 25 25 26 27 27 28 28 27 26 24 24 25 26 27 28 28 28 29 28 27 27 27
28 27 32 34 32 33 35 33 33 33 33 31 29 27 26 25 25 25 23 22 22 23 23 23 24 24 25 27 28 26 25 23 23 23 23 24 25 26 26 26 26 25 25 25
29 29 28 30 32 31 30 28 30 31 31 30 27 26 24 24 23 23 22 21 21 20 20 21 21 22 24 25 25 25 24 24 23 22 22 22 23 24 24 24 24 23 23 24
29 29 30 28 29 30 29 29 27 26 26 25 24 22 22 21 20 20 19 20 20 19 19 19 20 20 22 23 24 22 22 22 22 21 21 20 22 23 23 25 24 23 23 24
24 28 27 25 28 28 25 24 24 23 22 23 23 21 19 19 18 18 18 18 18 18 18 19 19 19 20 21 22 22 21 20 21 20 19 19 19 19 21 22 22 23 24 24
28 31 28 27 27 27 24 21 20 19 19 19 19 18 18 17 17 17 16 16 16 17 17 17 17 17 18 19 19 19 20 19 19 18 18 17 17 17 16 16 17 17 20 20
28 29 26 25 23 23 21 19 18 17 17 16 16 16 15 15 15 15 15 16 15 15 15 16 16 16 18 18 17 17 17 16 17 17 16 16 16 15 15 15 15 14 14 16
25 26 25 24 21 21 20 19 17 16 15 14 14 14 13 13 12 13 14 13 13 13 14 14 14 15 17 17 17 17 17 16 15 15 14 14 14 13 13 12 12 12 12 11
23 23 22 20 19 18 18 17 16 15 14 13 13 12 12 12 11 11 11 11 10 11 12 12 12 13 15 16 16 16 15 14 14 15 14 13 13 12 11 10 9 8 8 8
21 20 19 19 18 17 16 16 15 14 13 12 13 12 12 11 10 10 10 11 10 11 12 12 12 12 13 13 15 15 15 14 13 13 12 12 11 9 8 7 6 5 5 5
19 19 19 19 18 16 15 15 14 13 12 12 11 10 9 9 9 8 9 9 8 8 10 11 12 12 13 13 14 13 13 12 11 11 10 9 8 7 6 5 4 3 4 2
17 16 16 16 16 14 14 13 13 12 11 11 9 8 8 8 8 8 8 7 7 7 8 10 11 10 10 12 10 11 11 10 9 8 7 6 6 5 4 4 3 3 2 2
14 14 14 14 13 12 12 11 11 10 11 9 8 8 7 6 7 7 7 7 8 8 9 8 9 9 9 8 8 8 9 9 6 7 6 5 5 5 4 2 2 2 2 2
11 11 11 11 10 10 10 9 9 9 9 8 7 6 5 5 5 5 6 5 7 8 7 7 6 6 6 6 6 7 7 6 6 5 5 5 4 3 3 3 3 2 2 1
11 11 11 11 11 11 11 10 9 8 7 5 2 2 3 5 5 6 8 6 6 7 5 5 5 5 5 5 5 6 5 5 4 4 3 3 3 2 2 2 2 1 1 0
11 11 11 10 10 11 11 11 10 9 8 7 6 7 7 7 6 2 2 7 6 6 5 5 3 3 3 5 5 5 4 3 3 2 2 1 1 1 1 1 1 0 0 -0
12 12 11 12 12 12 11 12 12 10 7 7 5 5 7 6 6 5 5 5 4 5 5 5 4 1 1 2 3 3 4 4 3 2 1 -1 1 0 0 -0 -0 -0 -1 -2
12 12 13 12 13 12 11 12 10 10 9 9 9 9 8 6 5 7 6 4 3 2 4 1 1 1 4 3 2 1 2 2 2 2 2 2 1 1 0 -1 -2 -2 -2 -2
14 14 14 14 15 15 14 13 12 12 10 8 6 6 6 6 7 8 7 6 6 5 5 4 4 4 4 4 3 3 3 2 2 2 1 1 1 0 0 0 -1 -2 -2 -2
16 15 14 14 12 11 11 11 12 12 12 10 9 6 6 6 7 7 5 6 6 5 4 4 4 4 4 3 3 3 3 3 0 2 2 1 1 1 -0 -0 -0 -1 -2 -4

GFSNGP_sfc_30mbdewp_096.txt.gz
Dewpoint
22 22 21 19 17 19 19 20 19 18 19 24 36 38 40 40 37 36 36 35 34 33 34 37 38 39 40 41 43 51 52 52 54 54 54 55 55 54 55 56 56 55 55 55
19 19 16 13 12 13 15 18 19 21 22 33 38 38 37 37 36 35 33 34 34 33 33 36 36 37 37 37 38 39 39 40 42 45 46 47 48 49 53 53 55 56 55 55
16 16 11 9 15 13 16 20 21 20 25 31 37 36 36 35 35 33 33 32 31 32 32 35 36 34 35 35 36 36 36 36 36 38 40 41 42 43 44 46 47 44 44 41
14 13 2 17 18 21 20 26 28 29 33 37 37 35 34 35 34 32 32 31 30 31 31 32 35 35 33 33 33 35 34 34 35 35 36 38 38 40 42 42 39 37 37 38
12 8 12 22 26 25 22 22 30 34 35 37 35 34 31 31 32 31 30 31 30 31 31 32 33 33 32 31 30 30 30 31 32 34 34 36 36 37 38 37 34 33 32 33
17 8 9 25 28 30 29 18 32 33 34 38 36 36 28 29 29 29 30 27 27 28 27 30 32 32 31 30 30 29 29 29 31 31 32 32 34 35 35 33 32 30 30 30
19 15 18 31 30 28 18 27 33 33 31 30 27 27 29 28 27 30 26 26 26 26 26 26 28 30 29 29 29 28 27 28 28 28 30 31 31 32 32 32 32 31 30 30
21 18 17 32 29 27 31 34 34 33 32 29 28 28 27 26 26 28 24 23 24 24 24 25 26 27 28 27 28 27 26 26 26 27 28 29 29 29 30 30 30 29 29 28
27 25 30 31 29 31 32 30 31 31 31 31 28 27 27 25 25 25 24 22 22 22 22 23 23 25 25 27 27 26 24 24 24 24 25 25 26 27 27 27 27 26 26 27
29 29 28 30 31 31 30 29 29 31 31 30 27 26 25 25 24 22 20 20 21 21 21 21 22 23 24 25 25 25 24 23 22 22 22 23 23 24 25 25 25 25 26 26
28 30 29 28 29 29 29 29 28 27 27 27 25 23 22 20 20 19 19 19 20 20 20 19 20 21 22 24 24 23 23 22 22 22 21 21 22 23 22 24 25 25 24 25
25 28 28 27 28 28 26 25 25 24 23 23 22 21 20 19 18 18 18 18 18 19 19 19 20 20 21 22 23 23 22 22 23 22 21 21 19 19 20 21 22 22 23 24
28 30 29 28 28 28 25 21 20 20 20 19 19 19 18 18 17 17 17 17 17 18 18 19 19 20 21 21 21 22 23 22 22 22 21 21 21 21 19 18 17 18 19 20
30 31 26 26 24 22 21 19 18 17 17 17 17 18 17 17 17 17 17 17 16 17 17 18 18 18 20 21 21 21 21 21 22 22 22 21 21 20 20 20 18 18 15 16
25 26 25 23 21 21 20 18 17 16 16 15 15 15 16 15 15 15 16 15 15 15 15 16 16 17 19 20 20 20 21 21 21 20 20 20 20 20 19 19 18 18 18 16
23 22 22 20 19 18 18 17 16 16 15 15 14 14 15 14 14 14 13 13 13 13 14 14 14 15 17 19 20 20 19 18 19 20 19 19 18 17 17 16 15 14 12 12
22 21 21 19 18 17 17 16 16 15 15 15 14 14 14 13 13 12 12 12 11 12 13 13 14 14 16 16 19 19 18 17 17 17 17 16 16 15 14 13 11 10 7 7
19 19 19 19 18 16 16 15 15 15 14 14 13 12 11 11 11 11 11 11 10 9 11 12 12 13 14 15 16 16 16 15 15 14 14 14 12 11 10 8 7 7 7 6
16 16 16 16 16 16 15 15 15 14 13 12 11 11 10 10 11 10 10 9 9 8 9 10 10 11 11 12 11 13 13 13 12 11 10 10 10 8 8 8 7 7 6 6
15 15 15 15 15 14 14 14 13 12 12 11 11 10 8 7 8 8 8 8 8 8 9 8 8 8 8 8 9 9 11 11 8 9 9 9 9 9 7 5 5 6 6 6
14 14 13 13 13 12 13 12 12 11 11 11 9 6 5 6 7 8 6 6 8 7 7 6 6 4 3 4 5 10 10 9 9 8 8 8 7 6 6 6 6 5 5 5
14 13 13 13 12 12 13 13 11 10 9 6 4 5 7 7 7 7 8 6 5 7 5 4 4 5 5 5 6 8 6 6 6 6 6 6 6 5 5 4 4 4 3 3
14 14 13 13 14 14 13 13 12 11 10 8 8 9 8 7 5 4 4 5 5 6 4 5 4 4 5 7 7 7 6 5 5 5 4 4 4 3 3 3 3 2 2 2
15 14 14 14 14 13 13 14 13 12 10 10 8 9 8 7 8 5 5 6 6 6 6 6 5 3 4 5 5 5 5 5 4 4 3 3 3 2 2 1 1 1 1 0
14 14 14 14 13 12 13 12 11 10 10 9 8 8 7 6 7 6 6 6 4 5 5 4 4 4 5 5 4 3 3 3 3 3 3 2 2 1 2 1 0 1 -0 -1
15 14 13 14 13 13 12 12 11 12 11 11 11 10 9 8 7 7 7 7 6 5 5 6 5 5 5 4 4 4 3 3 3 3 2 2 2 1 1 1 1 1 1 0
15 15 13 12 12 11 10 9 9 9 11 13 11 11 9 8 8 6 7 6 6 6 6 6 6 6 5 4 4 3 3 3 3 2 3 3 2 2 2 1 1 1 1 0